Time,TemperatureF,DewpointF,PressureIn,WindDirection,WindDirectionDegrees,WindSpeedMPH,WindSpeedGustMPH,Humidity,HourlyPrecipIn,Conditions,Clouds,dailyrainin,SolarRadiationWatts/m^2,SoftwareType,DateUTC
2013-01-19 00:01:00,38.0,33.6,29.62,ENE,76,1.1,1.1,84,0.00,RA,,0.00,0.0,WeatherDisplay:10.37,2013-01-18 23:01:00,
2013-01-19 00:02:00,38.0,33.6,29.62,ENE,76,1.1,1.1,84,0.00,RA,,0.00,0.0,WeatherDisplay:10.37,2013-01-18 23:02:00,
2013-01-19 00:03:00,38.0,33.6,29.62,ENE,76,2.3,2.3,84,0.00,RA,,0.00,0.0,WeatherDisplay:10.37,2013-01-18 23:03:00,
2013-01-19 00:06:00,38.0,33.6,29.62,ENE,76,0.0,0.0,84,0.00,RA,,0.00,0.0,WeatherDisplay:10.37,2013-01-18 23:06:00,
2013-01-19 00:07:00,38.0,33.6,29.62,ENE,76,0.0,0.0,84,0.00,RA,,0.00,0.0,WeatherDisplay:10.37,2013-01-18 23:07:00,
2013-01-19 00:08:00,38.0,33.6,29.61,ENE,76,0.0,0.0,84,0.00,RA,,0.00,0.0,WeatherDisplay:10.37,2013-01-18 23:08:00,
2013-01-19 00:11:00,38.0,33.6,29.62,ENE,76,0.0,0.0,84,0.00,CLR,,0.00,0.0,WeatherDisplay:10.37,2013-01-18 23:11:00,
2013-01-19 00:12:00,38.0,33.6,29.62,ENE,76,0.0,0.0,84,0.00,CLR,,0.00,0.0,WeatherDisplay:10.37,2013-01-18 23:12:00,
2013-01-19 00:13:00,37.9,33.5,29.62,ENE,76,0.0,0.0,84,0.00,CLR,,0.00,0.0,WeatherDisplay:10.37,2013-01-18 23:13:00,
2013-01-19 00:16:00,37.9,33.5,29.62,ENE,76,0.0,0.0,84,0.00,CLR,,0.00,0.0,WeatherDisplay:10.37,2013-01-18 23:16:00,
2013-01-19 00:17:00,37.9,33.5,29.62,ENE,76,0.0,0.0,84,0.00,CLR,,0.00,0.0,WeatherDisplay:10.37,2013-01-18 23:17:00,
2013-01-19 00:18:00,37.9,33.5,29.62,ENE,76,0.0,0.0,84,0.00,CLR,,0.00,0.0,WeatherDisplay:10.37,2013-01-18 23:18:00,
2013-01-19 00:21:00,37.8,33.4,29.62,ENE,76,1.1,1.1,84,0.00,CLR,,0.00,0.0,WeatherDisplay:10.37,2013-01-18 23:21:00,
2013-01-19 00:22:00,37.7,33.3,29.62,ENE,76,0.0,0.0,84,0.00,CLR,,0.00,0.0,WeatherDisplay:10.37,2013-01-18 23:22:00,
2013-01-19 00:23:00,37.7,33.3,29.62,ENE,76,0.0,0.0,84,0.00,CLR,,0.00,0.0,WeatherDisplay:10.37,2013-01-18 23:23:00,
2013-01-19 00:26:00,37.7,33.6,29.62,ENE,76,0.0,0.0,85,0.00,CLR,,0.00,0.0,WeatherDisplay:10.37,2013-01-18 23:26:00,
2013-01-19 00:27:00,37.7,33.6,29.62,ENE,76,0.0,0.0,85,0.00,CLR,,0.00,0.0,WeatherDisplay:10.37,2013-01-18 23:27:00,
2013-01-19 00:28:00,37.6,33.5,29.62,ENE,76,0.0,0.0,85,0.00,CLR,,0.00,0.0,WeatherDisplay:10.37,2013-01-18 23:28:00,
2013-01-19 00:31:00,37.6,33.5,29.62,ENE,76,0.0,0.0,85,0.00,CLR,,0.00,0.0,WeatherDisplay:10.37,2013-01-18 23:31:00,
2013-01-19 00:32:00,37.6,33.5,29.62,ENE,76,0.0,0.0,85,0.00,CLR,,0.00,0.0,WeatherDisplay:10.37,2013-01-18 23:32:00,
2013-01-19 00:33:00,37.5,33.4,29.62,ENE,76,0.0,0.0,85,0.00,CLR,,0.00,0.0,WeatherDisplay:10.37,2013-01-18 23:33:00,
2013-01-19 00:34:00,37.6,33.5,29.62,ENE,76,0.0,0.0,85,0.00,CLR,,0.00,0.0,WeatherDisplay:10.37,2013-01-18 23:34:00,
2013-01-19 00:36:00,37.5,33.4,29.62,ENE,76,0.0,0.0,85,0.00,CLR,,0.00,0.0,WeatherDisplay:10.37,2013-01-18 23:36:00,
2013-01-19 00:37:00,37.4,33.3,29.62,ENE,76,0.0,0.0,85,0.00,CLR,,0.00,0.0,WeatherDisplay:10.37,2013-01-18 23:37:00,
2013-01-19 00:38:00,37.4,33.3,29.63,ENE,76,0.0,0.0,85,0.00,CLR,,0.00,0.0,WeatherDisplay:10.37,2013-01-18 23:38:00,
2013-01-19 00:39:00,37.4,33.3,29.63,ENE,76,0.0,0.0,85,0.00,CLR,,0.00,0.0,WeatherDisplay:10.37,2013-01-18 23:39:00,
2013-01-19 00:41:00,37.4,33.3,29.63,ENE,76,0.0,0.0,85,0.00,CLR,,0.00,0.0,WeatherDisplay:10.37,2013-01-18 23:41:00,
2013-01-19 00:42:00,37.4,33.3,29.63,ENE,76,0.0,0.0,85,0.00,CLR,,0.00,0.0,WeatherDisplay:10.37,2013-01-18 23:42:00,
2013-01-19 00:43:00,37.4,33.3,29.63,ENE,76,0.0,0.0,85,0.00,CLR,,0.00,0.0,WeatherDisplay:10.37,2013-01-18 23:43:00,
2013-01-19 00:44:00,37.4,33.3,29.63,ENE,76,0.0,0.0,85,0.00,CLR,,0.00,0.0,WeatherDisplay:10.37,2013-01-18 23:44:00,
2013-01-19 00:46:00,37.4,33.3,29.63,ENE,76,0.0,0.0,85,0.00,CLR,,0.00,0.0,WeatherDisplay:10.37,2013-01-18 23:46:00,
2013-01-19 00:47:00,37.3,33.2,29.63,ENE,76,0.0,0.0,85,0.00,CLR,,0.00,0.0,WeatherDisplay:10.37,2013-01-18 23:47:00,
2013-01-19 00:48:00,37.3,33.2,29.63,ENE,76,0.0,0.0,85,0.00,CLR,,0.00,0.0,WeatherDisplay:10.37,2013-01-18 23:48:00,
2013-01-19 00:49:00,37.4,33.3,29.63,ENE,76,0.0,0.0,85,0.00,CLR,,0.00,0.0,WeatherDisplay:10.37,2013-01-18 23:49:00,
2013-01-19 00:51:00,37.3,33.2,29.63,ENE,76,1.0,1.0,85,0.00,CLR,,0.00,0.0,WeatherDisplay:10.37,2013-01-18 23:51:00,
2013-01-19 00:52:00,37.3,33.2,29.63,ENE,76,3.0,3.0,85,0.00,CLR,,0.00,0.0,WeatherDisplay:10.37,2013-01-18 23:52:00,
2013-01-19 00:53:00,37.3,33.2,29.63,ENE,76,3.5,3.5,85,0.00,CLR,,0.00,0.0,WeatherDisplay:10.37,2013-01-18 23:53:00,
2013-01-19 00:54:00,37.3,33.2,29.63,ENE,76,3.5,3.5,85,0.00,CLR,,0.00,0.0,WeatherDisplay:10.37,2013-01-18 23:54:00,
2013-01-19 00:57:00,37.3,33.2,29.63,ENE,76,3.5,3.5,85,0.00,CLR,,0.00,0.0,WeatherDisplay:10.37,2013-01-18 23:57:00,
2013-01-19 00:58:00,37.3,33.5,29.63,ENE,76,3.5,3.5,86,0.00,CLR,,0.00,0.0,WeatherDisplay:10.37,2013-01-18 23:58:00,
2013-01-19 00:59:00,37.3,33.5,29.63,ENE,76,3.5,3.5,86,0.00,CLR,,0.00,0.0,WeatherDisplay:10.37,2013-01-18 23:59:00,
2013-01-19 01:02:00,37.5,33.7,29.62,ENE,76,3.5,3.5,86,0.00,CLR,,0.00,0.0,WeatherDisplay:10.37,2013-01-19 00:02:00,
2013-01-19 01:03:00,37.5,33.7,29.62,ENE,76,3.5,3.5,86,0.00,CLR,,0.00,0.0,WeatherDisplay:10.37,2013-01-19 00:03:00,
2013-01-19 01:04:00,37.5,33.7,29.62,ENE,76,3.5,3.5,86,0.00,CLR,,0.00,0.0,WeatherDisplay:10.37,2013-01-19 00:04:00,
2013-01-19 01:07:00,37.6,33.8,29.62,ENE,76,4.0,4.0,86,0.00,CLR,,0.00,0.0,WeatherDisplay:10.37,2013-01-19 00:07:00,
2013-01-19 01:08:00,37.7,33.9,29.62,ENE,77,4.6,4.6,86,0.00,CLR,,0.00,0.0,WeatherDisplay:10.37,2013-01-19 00:08:00,
2013-01-19 01:09:00,37.7,33.9,29.62,ENE,77,4.6,4.6,86,0.00,CLR,,0.00,0.0,WeatherDisplay:10.37,2013-01-19 00:09:00,
2013-01-19 01:12:00,37.9,34.1,29.63,ENE,78,4.6,4.6,86,0.00,CLR,,0.00,0.0,WeatherDisplay:10.37,2013-01-19 00:12:00,
2013-01-19 01:13:00,37.9,34.1,29.63,ENE,78,6.9,6.9,86,0.00,CLR,,0.00,0.0,WeatherDisplay:10.37,2013-01-19 00:13:00,
2013-01-19 01:14:00,37.9,34.1,29.63,East,80,8.0,8.0,86,0.00,CLR,,0.00,0.0,WeatherDisplay:10.37,2013-01-19 00:14:00,
2013-01-19 01:17:00,38.1,34.3,29.62,East,82,8.1,8.1,86,0.00,CLR,,0.00,0.0,WeatherDisplay:10.37,2013-01-19 00:17:00,
2013-01-19 01:18:00,38.1,34.3,29.63,East,82,8.1,8.1,86,0.00,CLR,,0.00,0.0,WeatherDisplay:10.37,2013-01-19 00:18:00,
2013-01-19 01:19:00,38.1,34.3,29.63,ENE,78,7.0,7.0,86,0.00,CLR,,0.00,0.0,WeatherDisplay:10.37,2013-01-19 00:19:00,
2013-01-19 01:22:00,38.2,34.4,29.62,ENE,78,4.0,4.0,86,0.00,CLR,,0.00,0.0,WeatherDisplay:10.37,2013-01-19 00:22:00,
2013-01-19 01:24:00,38.3,34.5,29.62,East,80,5.8,5.8,86,0.00,CLR,,0.00,0.0,WeatherDisplay:10.37,2013-01-19 00:24:00,
2013-01-19 01:28:00,38.4,34.6,29.63,East,79,3.5,3.5,86,0.00,CLR,,0.00,0.0,WeatherDisplay:10.37,2013-01-19 00:28:00,
2013-01-19 01:29:00,38.4,34.6,29.63,East,79,6.0,6.0,86,0.00,CLR,,0.00,0.0,WeatherDisplay:10.37,2013-01-19 00:29:00,
2013-01-19 01:30:00,38.4,34.6,29.63,East,79,5.8,5.8,86,0.00,CLR,,0.00,0.0,WeatherDisplay:10.37,2013-01-19 00:30:00,
2013-01-19 01:33:00,38.4,34.3,29.63,East,80,6.0,6.0,85,0.00,CLR,,0.00,0.0,WeatherDisplay:10.37,2013-01-19 00:33:00,
2013-01-19 01:34:00,38.4,34.3,29.63,East,79,7.0,7.0,85,0.00,CLR,,0.00,0.0,WeatherDisplay:10.37,2013-01-19 00:34:00,
2013-01-19 01:35:00,38.4,34.3,29.63,ENE,74,6.9,6.9,85,0.00,CLR,,0.00,0.0,WeatherDisplay:10.37,2013-01-19 00:35:00,
2013-01-19 01:38:00,38.5,34.4,29.63,ENE,76,3.5,3.5,85,0.00,CLR,,0.00,0.0,WeatherDisplay:10.37,2013-01-19 00:38:00,
2013-01-19 01:39:00,38.5,34.4,29.63,ENE,76,3.5,3.5,85,0.00,CLR,,0.00,0.0,WeatherDisplay:10.37,2013-01-19 00:39:00,
2013-01-19 01:40:00,38.5,34.4,29.63,ENE,76,3.5,3.5,85,0.00,CLR,,0.00,0.0,WeatherDisplay:10.37,2013-01-19 00:40:00,
2013-01-19 01:43:00,38.5,34.4,29.63,ENE,76,3.5,3.5,85,0.00,CLR,,0.00,0.0,WeatherDisplay:10.37,2013-01-19 00:43:00,
2013-01-19 01:44:00,38.5,34.4,29.63,ENE,76,3.5,3.5,85,0.00,CLR,,0.00,0.0,WeatherDisplay:10.37,2013-01-19 00:44:00,
2013-01-19 01:45:00,38.5,34.4,29.63,ENE,76,3.5,3.5,85,0.00,CLR,,0.00,0.0,WeatherDisplay:10.37,2013-01-19 00:45:00,
2013-01-19 01:49:00,38.5,34.4,29.63,ENE,77,3.5,3.5,85,0.00,CLR,,0.00,0.0,WeatherDisplay:10.37,2013-01-19 00:49:00,
2013-01-19 01:50:00,38.4,34.3,29.63,ENE,77,4.0,4.0,85,0.00,CLR,,0.00,0.0,WeatherDisplay:10.37,2013-01-19 00:50:00,
2013-01-19 01:54:00,38.4,34.3,29.63,ENE,77,2.3,2.3,85,0.00,CLR,,0.00,0.0,WeatherDisplay:10.37,2013-01-19 00:54:00,
2013-01-19 01:55:00,38.3,34.2,29.63,ENE,77,2.3,2.3,85,0.00,CLR,,0.00,0.0,WeatherDisplay:10.37,2013-01-19 00:55:00,
2013-01-19 01:59:00,38.3,33.9,29.63,ENE,78,2.3,2.3,84,0.00,CLR,,0.00,0.0,WeatherDisplay:10.37,2013-01-19 00:59:00,
2013-01-19 02:00:00,38.3,33.9,29.63,ENE,78,2.3,2.3,84,0.00,CLR,,0.00,0.0,WeatherDisplay:10.37,2013-01-19 01:00:00,
2013-01-19 02:04:00,38.2,33.8,29.64,ENE,78,2.3,2.3,84,0.00,CLR,,0.00,0.0,WeatherDisplay:10.37,2013-01-19 01:04:00,
2013-01-19 02:05:00,38.2,33.8,29.64,ENE,78,2.3,2.3,84,0.00,CLR,,0.00,0.0,WeatherDisplay:10.37,2013-01-19 01:05:00,
2013-01-19 02:09:00,38.1,33.7,29.64,ENE,78,2.3,0.0,84,0.00,CLR,,0.00,0.0,WeatherDisplay:10.37,2013-01-19 01:09:00,
2013-01-19 02:10:00,38.1,33.7,29.64,ENE,78,1.0,0.0,84,0.00,CLR,,0.00,0.0,WeatherDisplay:10.37,2013-01-19 01:10:00,
2013-01-19 02:14:00,38.1,33.7,29.64,ENE,78,2.0,2.0,84,0.00,CLR,,0.00,0.0,WeatherDisplay:10.37,2013-01-19 01:14:00,
2013-01-19 02:15:00,38.1,33.7,29.64,ENE,78,2.3,2.3,84,0.00,CLR,,0.00,0.0,WeatherDisplay:10.37,2013-01-19 01:15:00,
2013-01-19 02:16:00,38.1,33.7,29.64,ENE,78,3.5,3.5,84,0.00,CLR,,0.00,0.0,WeatherDisplay:10.37,2013-01-19 01:16:00,
2013-01-19 02:19:00,37.9,33.5,29.64,ENE,77,5.0,5.0,84,0.00,CLR,,0.00,0.0,WeatherDisplay:10.37,2013-01-19 01:19:00,
2013-01-19 02:20:00,37.9,33.5,29.64,ENE,74,4.6,4.6,84,0.00,CLR,,0.00,0.0,WeatherDisplay:10.37,2013-01-19 01:20:00,
2013-01-19 02:21:00,37.9,33.5,29.64,ENE,75,6.9,6.9,84,0.00,CLR,,0.00,0.0,WeatherDisplay:10.37,2013-01-19 01:21:00,
2013-01-19 02:24:00,37.9,33.5,29.64,ENE,75,7.0,7.0,84,0.00,CLR,,0.00,0.0,WeatherDisplay:10.37,2013-01-19 01:24:00,
2013-01-19 02:25:00,37.9,33.5,29.64,ENE,75,6.9,6.9,84,0.00,CLR,,0.00,0.0,WeatherDisplay:10.37,2013-01-19 01:25:00,
2013-01-19 02:26:00,37.9,33.5,29.64,ENE,76,5.0,5.0,84,0.00,CLR,,0.00,0.0,WeatherDisplay:10.37,2013-01-19 01:26:00,
2013-01-19 02:27:00,37.9,33.5,29.64,ENE,76,6.9,6.9,84,0.00,CLR,,0.00,0.0,WeatherDisplay:10.37,2013-01-19 01:27:00,
2013-01-19 02:30:00,37.9,33.5,29.64,ENE,76,4.0,4.0,84,0.00,CLR,,0.00,0.0,WeatherDisplay:10.37,2013-01-19 01:30:00,
2013-01-19 02:31:00,37.9,33.5,29.64,ENE,76,3.5,3.5,84,0.00,CLR,,0.00,0.0,WeatherDisplay:10.37,2013-01-19 01:31:00,
2013-01-19 02:32:00,38.0,33.6,29.64,ENE,76,2.3,2.3,84,0.00,CLR,,0.00,0.0,WeatherDisplay:10.37,2013-01-19 01:32:00,
2013-01-19 02:35:00,38.0,33.6,29.64,ENE,76,3.5,3.5,84,0.00,CLR,,0.00,0.0,WeatherDisplay:10.37,2013-01-19 01:35:00,
2013-01-19 02:36:00,37.9,33.5,29.64,ENE,76,1.1,1.1,84,0.00,CLR,,0.00,0.0,WeatherDisplay:10.37,2013-01-19 01:36:00,
2013-01-19 02:37:00,37.9,33.5,29.64,ENE,76,3.5,3.5,84,0.00,CLR,,0.00,0.0,WeatherDisplay:10.37,2013-01-19 01:37:00,
2013-01-19 02:40:00,37.9,33.5,29.64,ENE,76,2.0,2.0,84,0.00,CLR,,0.00,0.0,WeatherDisplay:10.37,2013-01-19 01:40:00,
2013-01-19 02:41:00,37.9,33.5,29.64,ENE,76,2.3,2.3,84,0.00,CLR,,0.00,0.0,WeatherDisplay:10.37,2013-01-19 01:41:00,
2013-01-19 02:42:00,37.8,33.4,29.64,ENE,76,1.1,0.0,84,0.00,CLR,,0.00,0.0,WeatherDisplay:10.37,2013-01-19 01:42:00,
2013-01-19 02:45:00,37.8,33.4,29.64,ENE,76,1.1,0.0,84,0.00,CLR,,0.00,0.0,WeatherDisplay:10.37,2013-01-19 01:45:00,
2013-01-19 02:46:00,37.7,33.3,29.64,ENE,76,0.0,0.0,84,0.00,CLR,,0.00,0.0,WeatherDisplay:10.37,2013-01-19 01:46:00,
2013-01-19 02:47:00,37.7,33.0,29.64,ENE,76,0.0,0.0,83,0.00,CLR,,0.00,0.0,WeatherDisplay:10.37,2013-01-19 01:47:00,
2013-01-19 02:50:00,37.6,32.9,29.65,ENE,76,0.0,0.0,83,0.00,CLR,,0.00,0.0,WeatherDisplay:10.37,2013-01-19 01:50:00,
2013-01-19 02:51:00,37.6,32.9,29.65,ENE,76,0.0,0.0,83,0.00,CLR,,0.00,0.0,WeatherDisplay:10.37,2013-01-19 01:51:00,
2013-01-19 02:52:00,37.5,33.1,29.65,ENE,76,0.0,0.0,84,0.00,CLR,,0.00,0.0,WeatherDisplay:10.37,2013-01-19 01:52:00,
2013-01-19 02:55:00,37.4,32.7,29.65,ENE,76,0.0,0.0,83,0.00,CLR,,0.00,0.0,WeatherDisplay:10.37,2013-01-19 01:55:00,
2013-01-19 02:56:00,37.4,32.7,29.65,ENE,76,0.0,0.0,83,0.00,CLR,,0.00,0.0,WeatherDisplay:10.37,2013-01-19 01:56:00,
2013-01-19 02:57:00,37.3,32.6,29.65,ENE,76,0.0,0.0,83,0.00,CLR,,0.00,0.0,WeatherDisplay:10.37,2013-01-19 01:57:00,
2013-01-19 02:58:00,37.3,32.6,29.65,ENE,76,0.0,0.0,83,0.00,CLR,,0.00,0.0,WeatherDisplay:10.37,2013-01-19 01:58:00,
2013-01-19 03:00:00,37.2,32.5,29.65,ENE,76,0.0,0.0,83,0.00,CLR,,0.00,0.0,WeatherDisplay:10.37,2013-01-19 02:00:00,
2013-01-19 03:01:00,37.2,32.5,29.66,ENE,76,0.0,0.0,83,0.00,CLR,,0.00,0.0,WeatherDisplay:10.37,2013-01-19 02:01:00,
2013-01-19 03:02:00,37.1,32.4,29.66,ENE,76,1.1,0.0,83,0.00,CLR,,0.00,0.0,WeatherDisplay:10.37,2013-01-19 02:02:00,
2013-01-19 03:03:00,37.1,32.4,29.66,ENE,76,2.3,2.3,83,0.00,CLR,,0.00,0.0,WeatherDisplay:10.37,2013-01-19 02:03:00,
2013-01-19 03:05:00,37.0,32.3,29.66,ENE,76,2.3,2.3,83,0.00,CLR,,0.00,0.0,WeatherDisplay:10.37,2013-01-19 02:05:00,
2013-01-19 03:06:00,36.9,32.2,29.66,ENE,76,2.3,2.3,83,0.00,CLR,,0.00,0.0,WeatherDisplay:10.37,2013-01-19 02:06:00,
2013-01-19 03:07:00,36.8,32.1,29.66,ENE,76,2.3,2.3,83,0.00,CLR,,0.00,0.0,WeatherDisplay:10.37,2013-01-19 02:07:00,
2013-01-19 03:08:00,36.8,32.1,29.66,ENE,76,1.1,0.0,83,0.00,CLR,,0.00,0.0,WeatherDisplay:10.37,2013-01-19 02:08:00,
2013-01-19 03:10:00,36.5,31.8,29.66,ENE,76,2.3,2.3,83,0.00,CLR,,0.00,0.0,WeatherDisplay:10.37,2013-01-19 02:10:00,
2013-01-19 03:11:00,36.5,31.8,29.66,ENE,74,4.0,4.0,83,0.00,CLR,,0.00,0.0,WeatherDisplay:10.37,2013-01-19 02:11:00,
2013-01-19 03:12:00,36.4,31.7,29.66,ENE,73,3.5,3.5,83,0.00,CLR,,0.00,0.0,WeatherDisplay:10.37,2013-01-19 02:12:00,
2013-01-19 03:13:00,36.4,31.7,29.66,ENE,73,3.5,3.5,83,0.00,CLR,,0.00,0.0,WeatherDisplay:10.37,2013-01-19 02:13:00,
2013-01-19 03:15:00,36.2,31.5,29.66,ENE,73,0.0,0.0,83,0.00,CLR,,0.00,0.0,WeatherDisplay:10.37,2013-01-19 02:15:00,
2013-01-19 03:17:00,36.0,31.3,29.66,ENE,73,3.5,3.5,83,0.00,CLR,,0.00,0.0,WeatherDisplay:10.37,2013-01-19 02:17:00,
2013-01-19 03:18:00,36.0,31.3,29.66,ENE,73,2.3,2.3,83,0.00,CLR,,0.00,0.0,WeatherDisplay:10.37,2013-01-19 02:18:00,
2013-01-19 03:20:00,35.9,31.2,29.66,ENE,73,2.3,2.3,83,0.00,CLR,,0.00,0.0,WeatherDisplay:10.37,2013-01-19 02:20:00,
2013-01-19 03:22:00,35.8,31.1,29.66,ENE,73,0.0,0.0,83,0.00,CLR,,0.00,0.0,WeatherDisplay:10.37,2013-01-19 02:22:00,
2013-01-19 03:23:00,35.8,31.1,29.66,ENE,73,0.0,0.0,83,0.00,CLR,,0.00,0.0,WeatherDisplay:10.37,2013-01-19 02:23:00,
2013-01-19 03:26:00,35.7,31.0,29.66,ENE,73,1.1,0.0,83,0.00,CLR,,0.00,0.0,WeatherDisplay:10.37,2013-01-19 02:26:00,
2013-01-19 03:28:00,35.6,30.9,29.66,ENE,73,0.0,0.0,83,0.00,CLR,,0.00,0.0,WeatherDisplay:10.37,2013-01-19 02:28:00,
2013-01-19 03:31:00,35.5,30.8,29.66,ENE,73,0.0,0.0,83,0.00,CLR,,0.00,0.0,WeatherDisplay:10.37,2013-01-19 02:31:00,
2013-01-19 03:33:00,35.4,30.8,29.66,ENE,73,0.0,0.0,83,0.00,CLR,,0.00,0.0,WeatherDisplay:10.37,2013-01-19 02:33:00,
2013-01-19 03:36:00,35.4,30.8,29.66,ENE,73,0.0,0.0,83,0.00,CLR,,0.00,0.0,WeatherDisplay:10.37,2013-01-19 02:36:00,
2013-01-19 03:38:00,35.3,30.9,29.66,ENE,73,0.0,0.0,84,0.00,CLR,,0.00,0.0,WeatherDisplay:10.37,2013-01-19 02:38:00,
2013-01-19 03:41:00,35.2,30.9,29.66,ENE,73,0.0,0.0,84,0.00,CLR,,0.00,0.0,WeatherDisplay:10.37,2013-01-19 02:41:00,
2013-01-19 03:43:00,35.2,30.9,29.66,ENE,73,0.0,0.0,84,0.00,CLR,,0.00,0.0,WeatherDisplay:10.37,2013-01-19 02:43:00,
2013-01-19 03:44:00,35.2,30.9,29.66,ENE,73,0.0,0.0,84,0.00,CLR,,0.00,0.0,WeatherDisplay:10.37,2013-01-19 02:44:00,
2013-01-19 03:46:00,35.2,30.9,29.66,ENE,73,0.0,0.0,84,0.00,CLR,,0.00,0.0,WeatherDisplay:10.37,2013-01-19 02:46:00,
2013-01-19 03:48:00,35.2,30.9,29.66,ENE,73,0.0,0.0,84,0.00,CLR,,0.00,0.0,WeatherDisplay:10.37,2013-01-19 02:48:00,
2013-01-19 03:49:00,35.2,30.9,29.66,ENE,73,0.0,0.0,84,0.00,CLR,,0.00,0.0,WeatherDisplay:10.37,2013-01-19 02:49:00,
2013-01-19 03:51:00,35.2,30.9,29.66,ENE,73,3.5,3.5,84,0.00,CLR,,0.00,0.0,WeatherDisplay:10.37,2013-01-19 02:51:00,
2013-01-19 03:53:00,35.2,30.9,29.66,ENE,73,2.3,2.3,84,0.00,CLR,,0.00,0.0,WeatherDisplay:10.37,2013-01-19 02:53:00,
2013-01-19 03:54:00,35.3,30.9,29.66,ENE,73,2.3,2.3,84,0.00,CLR,,0.00,0.0,WeatherDisplay:10.37,2013-01-19 02:54:00,
2013-01-19 03:56:00,35.3,31.2,29.66,ENE,73,2.3,2.3,85,0.00,CLR,,0.00,0.0,WeatherDisplay:10.37,2013-01-19 02:56:00,
2013-01-19 03:58:00,35.4,31.3,29.66,ENE,73,0.0,0.0,85,0.00,CLR,,0.00,0.0,WeatherDisplay:10.37,2013-01-19 02:58:00,
2013-01-19 03:59:00,35.4,31.3,29.66,ENE,73,0.0,0.0,85,0.00,CLR,,0.00,0.0,WeatherDisplay:10.37,2013-01-19 02:59:00,
2013-01-19 04:01:00,35.4,31.3,29.66,ENE,73,2.0,2.0,85,0.00,CLR,,0.00,0.0,WeatherDisplay:10.37,2013-01-19 03:01:00,
2013-01-19 04:03:00,35.4,31.3,29.65,ENE,73,2.3,2.3,85,0.00,CLR,,0.00,0.0,WeatherDisplay:10.37,2013-01-19 03:03:00,
2013-01-19 04:04:00,35.4,31.3,29.65,ENE,73,3.5,3.5,85,0.00,CLR,,0.00,0.0,WeatherDisplay:10.37,2013-01-19 03:04:00,
2013-01-19 04:06:00,35.4,31.3,29.66,ENE,73,0.0,0.0,85,0.00,CLR,,0.00,0.0,WeatherDisplay:10.37,2013-01-19 03:06:00,
2013-01-19 04:09:00,35.4,31.3,29.66,ENE,73,0.0,0.0,85,0.00,CLR,,0.00,0.0,WeatherDisplay:10.37,2013-01-19 03:09:00,
2013-01-19 04:12:00,35.4,31.3,29.65,ENE,73,2.3,2.3,85,0.00,CLR,,0.00,0.0,WeatherDisplay:10.37,2013-01-19 03:12:00,
2013-01-19 04:14:00,35.4,31.3,29.66,ENE,73,3.5,3.5,85,0.00,CLR,,0.00,0.0,WeatherDisplay:10.37,2013-01-19 03:14:00,
2013-01-19 04:17:00,35.4,31.6,29.66,ENE,73,0.0,0.0,86,0.00,CLR,,0.00,0.0,WeatherDisplay:10.37,2013-01-19 03:17:00,
2013-01-19 04:19:00,35.4,31.6,29.66,ENE,73,0.0,0.0,86,0.00,CLR,,0.00,0.0,WeatherDisplay:10.37,2013-01-19 03:19:00,
2013-01-19 04:22:00,35.3,31.5,29.66,ENE,73,0.0,0.0,86,0.00,CLR,,0.00,0.0,WeatherDisplay:10.37,2013-01-19 03:22:00,
2013-01-19 04:24:00,35.3,31.5,29.66,ENE,73,0.0,0.0,86,0.00,CLR,,0.00,0.0,WeatherDisplay:10.37,2013-01-19 03:24:00,
2013-01-19 04:25:00,35.3,31.5,29.66,ENE,73,0.0,0.0,86,0.00,CLR,,0.00,0.0,WeatherDisplay:10.37,2013-01-19 03:25:00,
2013-01-19 04:27:00,35.3,31.5,29.66,ENE,73,3.5,3.5,86,0.00,CLR,,0.00,0.0,WeatherDisplay:10.37,2013-01-19 03:27:00,
2013-01-19 04:29:00,35.4,31.6,29.66,ENE,73,2.3,2.3,86,0.00,CLR,,0.00,0.0,WeatherDisplay:10.37,2013-01-19 03:29:00,
2013-01-19 04:30:00,35.4,31.6,29.66,ENE,74,2.0,2.0,86,0.00,CLR,,0.00,0.0,WeatherDisplay:10.37,2013-01-19 03:30:00,
2013-01-19 04:32:00,35.4,31.6,29.66,ENE,73,2.3,2.3,86,0.00,CLR,,0.00,0.0,WeatherDisplay:10.37,2013-01-19 03:32:00,
2013-01-19 04:34:00,35.4,31.6,29.65,ENE,73,2.3,2.3,86,0.00,CLR,,0.00,0.0,WeatherDisplay:10.37,2013-01-19 03:34:00,
2013-01-19 04:35:00,35.5,31.7,29.66,ENE,73,3.5,3.5,86,0.00,CLR,,0.00,0.0,WeatherDisplay:10.37,2013-01-19 03:35:00,
2013-01-19 04:37:00,35.5,31.7,29.65,ENE,73,3.5,3.5,86,0.00,CLR,,0.00,0.0,WeatherDisplay:10.37,2013-01-19 03:37:00,
2013-01-19 04:39:00,35.6,31.8,29.65,ENE,73,2.3,2.3,86,0.00,CLR,,0.00,0.0,WeatherDisplay:10.37,2013-01-19 03:39:00,
2013-01-19 04:41:00,35.6,31.8,29.65,ENE,73,2.0,2.0,86,0.00,CLR,,0.00,0.0,WeatherDisplay:10.37,2013-01-19 03:41:00,
2013-01-19 04:42:00,35.6,31.8,29.66,ENE,73,3.0,3.0,86,0.00,CLR,,0.00,0.0,WeatherDisplay:10.37,2013-01-19 03:42:00,
2013-01-19 04:45:00,35.6,31.8,29.65,ENE,73,3.5,3.5,86,0.00,CLR,,0.00,0.0,WeatherDisplay:10.37,2013-01-19 03:45:00,
2013-01-19 04:46:00,35.6,31.8,29.65,ENE,73,3.5,3.5,86,0.00,CLR,,0.00,0.0,WeatherDisplay:10.37,2013-01-19 03:46:00,
2013-01-19 04:47:00,35.6,31.8,29.65,ENE,73,3.5,3.5,86,0.00,CLR,,0.00,0.0,WeatherDisplay:10.37,2013-01-19 03:47:00,
2013-01-19 04:50:00,35.6,31.8,29.65,ENE,73,0.0,0.0,86,0.00,CLR,,0.00,0.0,WeatherDisplay:10.37,2013-01-19 03:50:00,
2013-01-19 04:51:00,35.6,31.8,29.65,ENE,73,0.0,0.0,86,0.00,CLR,,0.00,0.0,WeatherDisplay:10.37,2013-01-19 03:51:00,
2013-01-19 04:52:00,35.6,31.8,29.65,ENE,73,0.0,0.0,86,0.00,CLR,,0.00,0.0,WeatherDisplay:10.37,2013-01-19 03:52:00,
2013-01-19 04:55:00,35.6,31.8,29.65,ENE,73,2.3,2.3,86,0.00,CLR,,0.00,0.0,WeatherDisplay:10.37,2013-01-19 03:55:00,
2013-01-19 04:56:00,35.6,31.8,29.65,ENE,73,2.3,0.0,86,0.00,CLR,,0.00,0.0,WeatherDisplay:10.37,2013-01-19 03:56:00,
2013-01-19 04:57:00,35.6,31.8,29.65,ENE,73,0.0,0.0,86,0.00,CLR,,0.00,0.0,WeatherDisplay:10.37,2013-01-19 03:57:00,
2013-01-19 05:00:00,35.6,31.8,29.65,ENE,73,0.0,0.0,86,0.00,CLR,,0.00,0.0,WeatherDisplay:10.37,2013-01-19 04:00:00,
2013-01-19 05:02:00,35.6,32.1,29.65,ENE,73,0.0,0.0,87,0.00,CLR,,0.00,0.0,WeatherDisplay:10.37,2013-01-19 04:02:00,
2013-01-19 05:05:00,35.6,32.1,29.65,ENE,73,0.0,0.0,87,0.00,CLR,,0.00,0.0,WeatherDisplay:10.37,2013-01-19 04:05:00,
2013-01-19 05:07:00,35.6,32.1,29.65,ENE,73,1.1,0.0,87,0.00,CLR,,0.00,0.0,WeatherDisplay:10.37,2013-01-19 04:07:00,
2013-01-19 05:10:00,35.6,32.1,29.66,ENE,73,0.0,0.0,87,0.00,CLR,,0.00,0.0,WeatherDisplay:10.37,2013-01-19 04:10:00,
2013-01-19 05:11:00,35.6,32.1,29.66,ENE,73,0.0,0.0,87,0.00,CLR,,0.00,0.0,WeatherDisplay:10.37,2013-01-19 04:11:00,
2013-01-19 05:12:00,35.6,32.1,29.65,ENE,73,0.0,0.0,87,0.00,CLR,,0.00,0.0,WeatherDisplay:10.37,2013-01-19 04:12:00,
2013-01-19 05:15:00,35.7,32.2,29.65,ENE,73,0.0,0.0,87,0.00,CLR,,0.00,0.0,WeatherDisplay:10.37,2013-01-19 04:15:00,
2013-01-19 05:16:00,35.7,32.2,29.66,ENE,73,0.0,0.0,87,0.00,CLR,,0.00,0.0,WeatherDisplay:10.37,2013-01-19 04:16:00,
2013-01-19 05:17:00,35.7,32.2,29.66,ENE,73,0.0,0.0,87,0.00,CLR,,0.00,0.0,WeatherDisplay:10.37,2013-01-19 04:17:00,
2013-01-19 05:20:00,35.8,32.3,29.66,ENE,74,3.5,3.5,87,0.00,CLR,,0.00,0.0,WeatherDisplay:10.37,2013-01-19 04:20:00,
2013-01-19 05:21:00,35.8,32.3,29.66,ENE,74,2.3,2.3,87,0.00,CLR,,0.00,0.0,WeatherDisplay:10.37,2013-01-19 04:21:00,
2013-01-19 05:22:00,35.8,32.3,29.66,ENE,74,3.5,3.5,87,0.00,CLR,,0.00,0.0,WeatherDisplay:10.37,2013-01-19 04:22:00,
2013-01-19 05:23:00,35.8,32.3,29.66,ENE,74,3.5,3.5,87,0.00,CLR,,0.00,0.0,WeatherDisplay:10.37,2013-01-19 04:23:00,
2013-01-19 05:25:00,35.9,32.4,29.66,ENE,76,2.3,2.3,87,0.00,CLR,,0.00,0.0,WeatherDisplay:10.37,2013-01-19 04:25:00,
2013-01-19 05:26:00,35.9,32.4,29.66,ENE,76,2.3,2.3,87,0.00,CLR,,0.00,0.0,WeatherDisplay:10.37,2013-01-19 04:26:00,
2013-01-19 05:27:00,35.9,32.4,29.66,ENE,76,3.5,3.5,87,0.00,CLR,,0.00,0.0,WeatherDisplay:10.37,2013-01-19 04:27:00,
2013-01-19 05:28:00,35.9,32.4,29.66,ENE,76,3.5,3.5,87,0.00,CLR,,0.00,0.0,WeatherDisplay:10.37,2013-01-19 04:28:00,
2013-01-19 05:32:00,36.1,32.6,29.66,ENE,76,3.5,3.5,87,0.00,CLR,,0.00,0.0,WeatherDisplay:10.37,2013-01-19 04:32:00,
2013-01-19 05:34:00,36.1,32.6,29.66,ENE,77,3.5,3.5,87,0.00,CLR,,0.00,0.0,WeatherDisplay:10.37,2013-01-19 04:34:00,
2013-01-19 05:37:00,36.2,32.7,29.66,ENE,77,0.0,0.0,87,0.00,CLR,,0.00,0.0,WeatherDisplay:10.37,2013-01-19 04:37:00,
2013-01-19 05:39:00,36.2,32.7,29.66,ENE,77,0.0,0.0,87,0.00,CLR,,0.00,0.0,WeatherDisplay:10.37,2013-01-19 04:39:00,
2013-01-19 05:42:00,36.2,32.7,29.66,ENE,78,2.0,2.0,87,0.00,CLR,,0.00,0.0,WeatherDisplay:10.37,2013-01-19 04:42:00,
2013-01-19 05:44:00,36.2,32.7,29.66,ENE,78,0.0,0.0,87,0.00,CLR,,0.00,0.0,WeatherDisplay:10.37,2013-01-19 04:44:00,
2013-01-19 05:47:00,36.2,32.7,29.66,ENE,78,2.3,2.3,87,0.00,CLR,,0.00,0.0,WeatherDisplay:10.37,2013-01-19 04:47:00,
2013-01-19 05:48:00,36.2,32.7,29.66,ENE,78,2.3,2.3,87,0.00,CLR,,0.00,0.0,WeatherDisplay:10.37,2013-01-19 04:48:00,
2013-01-19 05:49:00,36.1,32.6,29.67,ENE,78,3.5,3.5,87,0.00,CLR,,0.00,0.0,WeatherDisplay:10.37,2013-01-19 04:49:00,
2013-01-19 05:52:00,36.2,32.7,29.67,ENE,78,3.5,3.5,87,0.00,CLR,,0.00,0.0,WeatherDisplay:10.37,2013-01-19 04:52:00,
2013-01-19 05:53:00,36.2,32.7,29.67,ENE,78,3.5,3.5,87,0.00,CLR,,0.00,0.0,WeatherDisplay:10.37,2013-01-19 04:53:00,
2013-01-19 05:54:00,36.2,32.7,29.67,ENE,78,3.5,3.5,87,0.00,CLR,,0.00,0.0,WeatherDisplay:10.37,2013-01-19 04:54:00,
2013-01-19 05:57:00,36.2,32.7,29.67,ENE,78,2.0,2.0,87,0.00,CLR,,0.00,0.0,WeatherDisplay:10.37,2013-01-19 04:57:00,
2013-01-19 05:58:00,36.2,32.7,29.67,ENE,78,3.5,3.5,87,0.00,CLR,,0.00,0.0,WeatherDisplay:10.37,2013-01-19 04:58:00,
2013-01-19 05:59:00,36.1,32.6,29.67,ENE,78,1.1,0.0,87,0.00,CLR,,0.00,0.0,WeatherDisplay:10.37,2013-01-19 04:59:00,
2013-01-19 06:00:00,36.2,32.7,29.67,ENE,78,1.1,0.0,87,0.00,CLR,,0.00,0.0,WeatherDisplay:10.37,2013-01-19 05:00:00,
2013-01-19 06:01:00,36.2,32.7,29.67,ENE,78,0.0,0.0,87,0.00,CLR,,0.00,0.0,WeatherDisplay:10.37,2013-01-19 05:01:00,
2013-01-19 06:06:00,36.2,32.7,29.67,ENE,78,2.3,2.3,87,0.00,CLR,,0.00,0.0,WeatherDisplay:10.37,2013-01-19 05:06:00,
2013-01-19 06:11:00,36.2,32.7,29.67,East,79,2.3,2.3,87,0.00,CLR,,0.00,0.0,WeatherDisplay:10.37,2013-01-19 05:11:00,
2013-01-19 06:16:00,36.3,32.8,29.67,East,79,2.3,2.3,87,0.00,CLR,,0.00,0.0,WeatherDisplay:10.37,2013-01-19 05:16:00,
2013-01-19 06:17:00,36.3,32.8,29.67,East,79,2.3,2.3,87,0.00,CLR,,0.00,0.0,WeatherDisplay:10.37,2013-01-19 05:17:00,
2013-01-19 06:21:00,36.3,32.8,29.67,East,79,0.0,0.0,87,0.00,CLR,,0.00,0.0,WeatherDisplay:10.37,2013-01-19 05:21:00,
2013-01-19 06:22:00,36.2,32.7,29.67,East,79,0.0,0.0,87,0.00,CLR,,0.00,0.0,WeatherDisplay:10.37,2013-01-19 05:22:00,
2013-01-19 06:26:00,36.2,32.7,29.67,East,79,0.0,0.0,87,0.00,CLR,,0.00,0.0,WeatherDisplay:10.37,2013-01-19 05:26:00,
2013-01-19 06:27:00,36.2,32.7,29.67,East,79,0.0,0.0,87,0.00,CLR,,0.00,0.0,WeatherDisplay:10.37,2013-01-19 05:27:00,
2013-01-19 06:31:00,36.1,32.6,29.67,East,79,0.0,0.0,87,0.00,CLR,,0.00,0.0,WeatherDisplay:10.37,2013-01-19 05:31:00,
2013-01-19 06:32:00,36.1,32.6,29.67,East,79,0.0,0.0,87,0.00,CLR,,0.00,0.0,WeatherDisplay:10.37,2013-01-19 05:32:00,
2013-01-19 06:37:00,36.1,32.6,29.68,East,79,2.3,2.3,87,0.00,CLR,,0.00,0.0,WeatherDisplay:10.37,2013-01-19 05:37:00,
2013-01-19 06:38:00,36.1,32.6,29.68,East,79,2.3,2.3,87,0.00,CLR,,0.00,0.0,WeatherDisplay:10.37,2013-01-19 05:38:00,
2013-01-19 06:42:00,36.1,32.6,29.68,East,79,0.0,0.0,87,0.00,CLR,,0.00,0.0,WeatherDisplay:10.37,2013-01-19 05:42:00,
2013-01-19 06:43:00,36.1,32.6,29.68,East,79,0.0,0.0,87,0.00,CLR,,0.00,0.0,WeatherDisplay:10.37,2013-01-19 05:43:00,
2013-01-19 06:44:00,36.1,32.6,29.68,East,79,0.0,0.0,87,0.00,CLR,,0.00,0.0,WeatherDisplay:10.37,2013-01-19 05:44:00,
2013-01-19 06:47:00,36.0,32.5,29.68,East,79,0.0,0.0,87,0.00,CLR,,0.00,0.0,WeatherDisplay:10.37,2013-01-19 05:47:00,
2013-01-19 06:48:00,36.0,32.5,29.68,East,79,0.0,0.0,87,0.00,CLR,,0.00,0.0,WeatherDisplay:10.37,2013-01-19 05:48:00,
2013-01-19 06:49:00,36.0,32.5,29.68,East,79,0.0,0.0,87,0.00,CLR,,0.00,0.0,WeatherDisplay:10.37,2013-01-19 05:49:00,
2013-01-19 06:52:00,35.9,32.4,29.68,East,79,0.0,0.0,87,0.00,CLR,,0.00,0.0,WeatherDisplay:10.37,2013-01-19 05:52:00,
2013-01-19 06:53:00,35.9,32.4,29.68,East,79,0.0,0.0,87,0.00,CLR,,0.00,0.0,WeatherDisplay:10.37,2013-01-19 05:53:00,
2013-01-19 06:54:00,35.9,32.4,29.68,East,79,0.0,0.0,87,0.00,CLR,,0.00,0.0,WeatherDisplay:10.37,2013-01-19 05:54:00,
2013-01-19 06:57:00,35.8,32.3,29.68,East,79,0.0,0.0,87,0.00,CLR,,0.00,0.0,WeatherDisplay:10.37,2013-01-19 05:57:00,
2013-01-19 06:58:00,35.8,32.3,29.68,East,79,0.0,0.0,87,0.00,CLR,,0.00,0.0,WeatherDisplay:10.37,2013-01-19 05:58:00,
2013-01-19 06:59:00,35.8,32.3,29.68,East,79,0.0,0.0,87,0.00,CLR,,0.00,0.0,WeatherDisplay:10.37,2013-01-19 05:59:00,
2013-01-19 07:02:00,35.7,32.2,29.68,East,79,0.0,0.0,87,0.00,CLR,,0.00,0.0,WeatherDisplay:10.37,2013-01-19 06:02:00,
2013-01-19 07:03:00,35.7,32.2,29.68,East,79,0.0,0.0,87,0.00,CLR,,0.00,0.0,WeatherDisplay:10.37,2013-01-19 06:03:00,
2013-01-19 07:04:00,35.7,32.2,29.68,East,79,0.0,0.0,87,0.00,CLR,,0.00,0.0,WeatherDisplay:10.37,2013-01-19 06:04:00,
2013-01-19 07:07:00,35.6,32.1,29.68,East,79,0.0,0.0,87,0.00,CLR,,0.00,0.0,WeatherDisplay:10.37,2013-01-19 06:07:00,
2013-01-19 07:08:00,35.6,32.1,29.68,East,79,0.0,0.0,87,0.00,CLR,,0.00,0.0,WeatherDisplay:10.37,2013-01-19 06:08:00,
2013-01-19 07:09:00,35.6,32.1,29.68,East,79,0.0,0.0,87,0.00,CLR,,0.00,0.0,WeatherDisplay:10.37,2013-01-19 06:09:00,
2013-01-19 07:12:00,35.6,32.1,29.68,East,79,0.0,0.0,87,0.00,CLR,,0.00,0.0,WeatherDisplay:10.37,2013-01-19 06:12:00,
2013-01-19 07:13:00,35.6,32.1,29.68,East,79,1.1,1.1,87,0.00,CLR,,0.00,0.0,WeatherDisplay:10.37,2013-01-19 06:13:00,
2013-01-19 07:14:00,35.6,32.1,29.68,East,79,2.3,2.3,87,0.00,CLR,,0.00,0.0,WeatherDisplay:10.37,2013-01-19 06:14:00,
2013-01-19 07:17:00,35.6,32.1,29.68,East,79,0.0,0.0,87,0.00,CLR,,0.00,0.0,WeatherDisplay:10.37,2013-01-19 06:17:00,
2013-01-19 07:18:00,35.5,32.0,29.68,East,79,1.1,1.1,87,0.00,CLR,,0.00,0.0,WeatherDisplay:10.37,2013-01-19 06:18:00,
2013-01-19 07:19:00,35.5,32.0,29.68,East,79,2.3,0.0,87,0.00,CLR,,0.00,0.0,WeatherDisplay:10.37,2013-01-19 06:19:00,
2013-01-19 07:22:00,35.5,32.0,29.68,East,79,0.0,0.0,87,0.00,CLR,,0.00,0.0,WeatherDisplay:10.37,2013-01-19 06:22:00,
2013-01-19 07:24:00,35.5,32.0,29.68,East,79,0.0,0.0,87,0.00,CLR,,0.00,0.0,WeatherDisplay:10.37,2013-01-19 06:24:00,
2013-01-19 07:27:00,35.5,32.0,29.68,East,79,0.0,0.0,87,0.00,CLR,,0.00,0.0,WeatherDisplay:10.37,2013-01-19 06:27:00,
2013-01-19 07:29:00,35.5,32.0,29.69,East,79,2.3,2.3,87,0.00,CLR,,0.00,0.0,WeatherDisplay:10.37,2013-01-19 06:29:00,
2013-01-19 07:32:00,35.5,32.0,29.68,East,79,3.5,3.5,87,0.00,CLR,,0.00,5.0,WeatherDisplay:10.37,2013-01-19 06:32:00,
2013-01-19 07:33:00,35.5,32.0,29.68,East,79,3.5,3.5,87,0.00,CLR,,0.00,5.0,WeatherDisplay:10.37,2013-01-19 06:33:00,
2013-01-19 07:34:00,35.6,32.1,29.68,East,79,2.3,2.3,87,0.00,CLR,,0.00,7.0,WeatherDisplay:10.37,2013-01-19 06:34:00,
2013-01-19 07:38:00,35.6,32.1,29.68,East,79,0.0,0.0,87,0.00,CLR,,0.00,9.0,WeatherDisplay:10.37,2013-01-19 06:38:00,
2013-01-19 07:39:00,35.6,32.1,29.68,East,79,1.1,0.0,87,0.00,CLR,,0.00,11.0,WeatherDisplay:10.37,2013-01-19 06:39:00,
2013-01-19 07:43:00,35.6,32.1,29.68,East,79,2.3,2.3,87,0.00,CLR,,0.00,12.0,WeatherDisplay:10.37,2013-01-19 06:43:00,
2013-01-19 07:44:00,35.6,32.1,29.68,East,79,2.3,2.3,87,0.00,CLR,,0.00,14.0,WeatherDisplay:10.37,2013-01-19 06:44:00,
2013-01-19 07:45:00,35.6,32.1,29.68,East,79,3.0,3.0,87,0.00,CLR,,0.00,14.0,WeatherDisplay:10.37,2013-01-19 06:45:00,
2013-01-19 07:48:00,35.8,32.3,29.68,East,79,3.5,3.5,87,0.00,CLR,,0.00,18.0,WeatherDisplay:10.37,2013-01-19 06:48:00,
2013-01-19 07:49:00,35.9,32.4,29.68,East,79,5.0,5.0,87,0.00,CLR,,0.00,18.0,WeatherDisplay:10.37,2013-01-19 06:49:00,
2013-01-19 07:50:00,36.0,32.5,29.68,East,79,4.6,4.6,87,0.00,CLR,,0.00,19.0,WeatherDisplay:10.37,2013-01-19 06:50:00,
2013-01-19 07:53:00,36.2,32.7,29.69,East,79,2.3,2.3,87,0.00,CLR,,0.00,21.0,WeatherDisplay:10.37,2013-01-19 06:53:00,
2013-01-19 07:55:00,36.3,33.1,29.68,East,79,0.0,0.0,88,0.00,CLR,,0.00,23.0,WeatherDisplay:10.37,2013-01-19 06:55:00,
2013-01-19 07:58:00,36.5,33.3,29.68,East,79,0.0,0.0,88,0.00,CLR,,0.00,26.0,WeatherDisplay:10.37,2013-01-19 06:58:00,
2013-01-19 08:00:00,36.5,33.3,29.68,East,79,0.0,0.1,88,0.00,CLR,,0.00,32.0,WeatherDisplay:10.37,2013-01-19 07:00:00,
2013-01-19 08:03:00,36.6,33.4,29.68,East,79,3.0,3.0,88,0.00,CLR,,0.00,33.0,WeatherDisplay:10.37,2013-01-19 07:03:00,
2013-01-19 08:05:00,36.7,33.2,29.68,East,79,3.5,3.5,87,0.00,CLR,,0.00,35.0,WeatherDisplay:10.37,2013-01-19 07:05:00,
2013-01-19 08:08:00,36.8,33.3,29.68,East,79,3.5,3.5,87,0.00,CLR,,0.00,39.0,WeatherDisplay:10.37,2013-01-19 07:08:00,
2013-01-19 08:10:00,36.9,33.4,29.68,East,79,3.5,3.5,87,0.00,CLR,,0.00,40.0,WeatherDisplay:10.37,2013-01-19 07:10:00,
2013-01-19 08:13:00,37.0,33.5,29.68,East,79,2.3,2.3,87,0.00,CLR,,0.00,44.0,WeatherDisplay:10.37,2013-01-19 07:13:00,
2013-01-19 08:16:00,37.0,33.5,29.68,East,79,0.0,0.0,87,0.00,CLR,,0.00,46.0,WeatherDisplay:10.37,2013-01-19 07:16:00,
2013-01-19 08:18:00,37.2,33.7,29.68,East,79,1.1,0.0,87,0.00,CLR,,0.00,47.0,WeatherDisplay:10.37,2013-01-19 07:18:00,
2013-01-19 08:19:00,37.2,33.7,29.68,East,79,0.0,0.0,87,0.00,CLR,,0.00,47.0,WeatherDisplay:10.37,2013-01-19 07:19:00,
2013-01-19 08:21:00,37.2,33.7,29.68,East,79,0.0,0.0,87,0.00,CLR,,0.00,47.0,WeatherDisplay:10.37,2013-01-19 07:21:00,
2013-01-19 08:23:00,37.3,33.8,29.68,East,79,2.3,2.3,87,0.00,CLR,,0.00,53.0,WeatherDisplay:10.37,2013-01-19 07:23:00,
2013-01-19 08:24:00,37.3,33.8,29.68,East,79,2.3,2.3,87,0.00,CLR,,0.00,53.0,WeatherDisplay:10.37,2013-01-19 07:24:00,
2013-01-19 08:26:00,37.4,33.9,29.68,East,79,2.3,2.3,87,0.00,CLR,,0.00,54.0,WeatherDisplay:10.37,2013-01-19 07:26:00,
2013-01-19 08:27:00,37.4,33.9,29.68,East,79,2.3,2.3,87,0.00,CLR,,0.00,56.0,WeatherDisplay:10.37,2013-01-19 07:27:00,
2013-01-19 08:28:00,37.5,34.0,29.68,East,79,3.5,3.5,87,0.00,CLR,,0.00,56.0,WeatherDisplay:10.37,2013-01-19 07:28:00,
2013-01-19 08:29:00,37.5,34.0,29.67,East,79,5.0,5.0,87,0.00,CLR,,0.00,56.0,WeatherDisplay:10.37,2013-01-19 07:29:00,
2013-01-19 08:31:00,37.6,34.1,29.68,East,79,4.6,4.6,87,0.00,CLR,,0.00,56.0,WeatherDisplay:10.37,2013-01-19 07:31:00,
2013-01-19 08:32:00,37.7,34.2,29.68,East,79,3.5,3.5,87,0.00,CLR,,0.00,56.0,WeatherDisplay:10.37,2013-01-19 07:32:00,
2013-01-19 08:33:00,37.7,34.2,29.68,East,79,2.3,2.3,87,0.00,CLR,,0.00,58.0,WeatherDisplay:10.37,2013-01-19 07:33:00,
2013-01-19 08:34:00,37.8,34.3,29.68,East,79,2.3,2.3,87,0.00,CLR,,0.00,62.0,WeatherDisplay:10.37,2013-01-19 07:34:00,
2013-01-19 08:36:00,37.8,34.3,29.68,East,79,3.5,3.5,87,0.00,CLR,,0.00,63.0,WeatherDisplay:10.37,2013-01-19 07:36:00,
2013-01-19 08:38:00,37.9,34.4,29.68,East,79,1.1,0.0,87,0.00,CLR,,0.00,70.0,WeatherDisplay:10.37,2013-01-19 07:38:00,
2013-01-19 08:39:00,37.9,34.4,29.68,East,79,3.0,3.0,87,0.00,CLR,,0.00,72.0,WeatherDisplay:10.37,2013-01-19 07:39:00,
2013-01-19 08:41:00,38.0,34.5,29.68,East,79,4.6,4.6,87,0.00,CLR,,0.00,76.0,WeatherDisplay:10.37,2013-01-19 07:41:00,
2013-01-19 08:43:00,38.1,34.6,29.68,East,79,3.5,3.5,87,0.00,CLR,,0.00,76.0,WeatherDisplay:10.37,2013-01-19 07:43:00,
2013-01-19 08:44:00,38.2,34.7,29.68,East,79,2.3,2.3,87,0.00,CLR,,0.00,81.0,WeatherDisplay:10.37,2013-01-19 07:44:00,
2013-01-19 08:45:00,38.2,34.7,29.68,East,79,2.3,2.3,87,0.00,CLR,,0.00,81.0,WeatherDisplay:10.37,2013-01-19 07:45:00,
2013-01-19 08:47:00,38.3,34.8,29.68,East,79,3.5,3.5,87,0.00,CLR,,0.00,0.0,WeatherDisplay:10.37,2013-01-19 07:47:00,
2013-01-19 08:49:00,38.3,34.8,29.68,East,79,0.0,0.0,87,0.00,CLR,,0.00,86.0,WeatherDisplay:10.37,2013-01-19 07:49:00,
2013-01-19 08:50:00,38.4,34.9,29.68,East,79,0.0,0.0,87,0.00,CLR,,0.00,86.0,WeatherDisplay:10.37,2013-01-19 07:50:00,
2013-01-19 08:52:00,38.5,35.0,29.68,East,79,2.0,2.0,87,0.00,CLR,,0.00,88.0,WeatherDisplay:10.37,2013-01-19 07:52:00,
2013-01-19 08:54:00,38.6,35.1,29.68,East,79,2.3,2.3,87,0.00,CLR,,0.00,91.0,WeatherDisplay:10.37,2013-01-19 07:54:00,
2013-01-19 08:55:00,38.7,35.2,29.68,East,79,2.3,2.3,87,0.00,CLR,,0.00,93.0,WeatherDisplay:10.37,2013-01-19 07:55:00,
2013-01-19 08:57:00,38.7,35.2,29.68,East,79,3.5,3.5,87,0.00,CLR,,0.00,98.0,WeatherDisplay:10.37,2013-01-19 07:57:00,
2013-01-19 08:59:00,38.8,35.0,29.68,East,79,3.5,3.5,86,0.00,CLR,,0.00,98.0,WeatherDisplay:10.37,2013-01-19 07:59:00,
2013-01-19 09:00:00,38.9,35.1,29.68,East,79,3.5,3.5,86,0.00,CLR,,0.00,98.0,WeatherDisplay:10.37,2013-01-19 08:00:00,
2013-01-19 09:02:00,39.0,35.2,29.68,East,79,3.5,3.5,86,0.00,CLR,,0.00,107.0,WeatherDisplay:10.37,2013-01-19 08:02:00,
2013-01-19 09:04:00,39.1,35.3,29.68,East,79,5.0,5.0,86,0.00,CLR,,0.00,116.0,WeatherDisplay:10.37,2013-01-19 08:04:00,
2013-01-19 09:05:00,39.1,35.3,29.68,East,79,4.6,4.6,86,0.00,CLR,,0.00,116.0,WeatherDisplay:10.37,2013-01-19 08:05:00,
2013-01-19 09:07:00,39.2,35.4,29.68,East,79,4.6,4.6,86,0.00,CLR,,0.00,121.0,WeatherDisplay:10.37,2013-01-19 08:07:00,
2013-01-19 09:10:00,39.4,35.6,29.68,East,80,3.5,0.0,86,0.00,CLR,,0.00,113.0,WeatherDisplay:10.37,2013-01-19 08:10:00,
2013-01-19 09:12:00,39.6,35.8,29.68,East,79,2.3,2.3,86,0.00,CLR,,0.00,113.0,WeatherDisplay:10.37,2013-01-19 08:12:00,
2013-01-19 09:15:00,39.7,35.6,29.68,East,79,4.6,4.6,85,0.00,CLR,,0.00,132.0,WeatherDisplay:10.37,2013-01-19 08:15:00,
2013-01-19 09:18:00,39.8,35.7,29.68,ENE,78,3.5,3.5,85,0.00,CLR,,0.00,111.0,WeatherDisplay:10.37,2013-01-19 08:18:00,
2013-01-19 09:20:00,40.0,35.9,29.69,ENE,78,2.3,2.3,85,0.00,CLR,,0.00,127.0,WeatherDisplay:10.37,2013-01-19 08:20:00,
2013-01-19 09:21:00,40.0,35.9,29.69,ENE,78,2.3,2.3,85,0.00,CLR,,0.00,127.0,WeatherDisplay:10.37,2013-01-19 08:21:00,
2013-01-19 09:23:00,40.1,36.0,29.69,ENE,78,3.5,3.5,85,0.00,CLR,,0.00,192.0,WeatherDisplay:10.37,2013-01-19 08:23:00,
2013-01-19 09:25:00,40.4,36.2,29.69,ENE,78,2.0,2.0,85,0.00,CLR,,0.00,232.0,WeatherDisplay:10.37,2013-01-19 08:25:00,
2013-01-19 09:26:00,40.5,36.3,29.69,ENE,78,3.0,3.0,85,0.00,CLR,,0.00,232.0,WeatherDisplay:10.37,2013-01-19 08:26:00,
2013-01-19 09:28:00,40.7,36.2,29.69,ENE,78,3.5,3.5,84,0.00,CLR,,0.00,162.0,WeatherDisplay:10.37,2013-01-19 08:28:00,
2013-01-19 09:30:00,40.9,36.4,29.69,ENE,78,2.3,2.3,84,0.00,CLR,,0.00,181.0,WeatherDisplay:10.37,2013-01-19 08:30:00,
2013-01-19 09:31:00,41.0,36.5,29.69,ENE,78,3.0,3.0,84,0.00,CLR,,0.00,160.0,WeatherDisplay:10.37,2013-01-19 08:31:00,
2013-01-19 09:33:00,41.1,36.3,29.69,ENE,78,3.5,3.5,83,0.00,CLR,,0.00,148.0,WeatherDisplay:10.37,2013-01-19 08:33:00,
2013-01-19 09:35:00,41.2,36.4,29.69,ENE,78,3.5,3.5,83,0.00,CLR,,0.00,135.0,WeatherDisplay:10.37,2013-01-19 08:35:00,
2013-01-19 09:36:00,41.3,36.5,29.69,ENE,78,3.5,3.5,83,0.00,CLR,,0.00,134.0,WeatherDisplay:10.37,2013-01-19 08:36:00,
2013-01-19 09:38:00,41.4,36.6,29.69,ENE,78,3.5,3.5,83,0.00,CLR,,0.00,134.0,WeatherDisplay:10.37,2013-01-19 08:38:00,
2013-01-19 09:40:00,41.5,36.4,29.69,ENE,78,3.5,3.5,82,0.00,CLR,,0.00,137.0,WeatherDisplay:10.37,2013-01-19 08:40:00,
2013-01-19 09:42:00,41.5,36.4,29.69,ENE,78,3.5,3.5,82,0.00,CLR,,0.00,144.0,WeatherDisplay:10.37,2013-01-19 08:42:00,
2013-01-19 09:43:00,41.6,36.5,29.69,ENE,78,3.5,3.5,82,0.00,CLR,,0.00,149.0,WeatherDisplay:10.37,2013-01-19 08:43:00,
2013-01-19 09:45:00,41.8,36.7,29.69,ENE,78,3.5,3.5,82,0.00,CLR,,0.00,137.0,WeatherDisplay:10.37,2013-01-19 08:45:00,
2013-01-19 09:46:00,41.8,36.7,29.69,ENE,78,3.5,3.5,82,0.00,CLR,,0.00,137.0,WeatherDisplay:10.37,2013-01-19 08:46:00,
2013-01-19 09:47:00,41.9,36.8,29.69,ENE,78,3.5,3.5,82,0.00,CLR,,0.00,137.0,WeatherDisplay:10.37,2013-01-19 08:47:00,
2013-01-19 09:48:00,42.0,36.6,29.69,ENE,78,2.3,2.3,81,0.00,CLR,,0.00,137.0,WeatherDisplay:10.37,2013-01-19 08:48:00,
2013-01-19 09:51:00,42.2,36.8,29.69,ENE,78,3.5,3.5,81,0.00,CLR,,0.00,137.0,WeatherDisplay:10.37,2013-01-19 08:51:00,
2013-01-19 09:52:00,42.3,36.9,29.69,ENE,78,3.5,3.5,81,0.00,CLR,,0.00,153.0,WeatherDisplay:10.37,2013-01-19 08:52:00,
2013-01-19 09:53:00,42.3,36.6,29.69,ENE,78,2.3,2.3,80,0.00,CLR,,0.00,174.0,WeatherDisplay:10.37,2013-01-19 08:53:00,
2013-01-19 09:56:00,42.6,36.9,29.69,ENE,77,3.5,3.5,80,0.00,CLR,,0.00,174.0,WeatherDisplay:10.37,2013-01-19 08:56:00,
2013-01-19 09:57:00,42.8,37.1,29.69,ENE,76,3.5,3.5,80,0.00,CLR,,0.00,174.0,WeatherDisplay:10.37,2013-01-19 08:57:00,
2013-01-19 09:58:00,42.8,37.1,29.69,ENE,76,3.5,3.5,80,0.00,CLR,,0.00,174.0,WeatherDisplay:10.37,2013-01-19 08:58:00,
2013-01-19 10:01:00,43.4,37.3,29.69,ENE,76,3.5,3.5,79,0.00,CLR,,0.00,174.0,WeatherDisplay:10.37,2013-01-19 09:01:00,
2013-01-19 10:02:00,43.7,37.3,29.69,ENE,76,3.5,3.5,78,0.00,CLR,,0.00,225.0,WeatherDisplay:10.37,2013-01-19 09:02:00,
2013-01-19 10:03:00,43.8,37.4,29.69,ENE,76,3.5,3.5,78,0.00,CLR,,0.00,197.0,WeatherDisplay:10.37,2013-01-19 09:03:00,
2013-01-19 10:06:00,44.0,37.3,29.69,ENE,76,3.5,3.5,77,0.00,CLR,,0.00,155.0,WeatherDisplay:10.37,2013-01-19 09:06:00,
2013-01-19 10:07:00,44.0,37.3,29.69,ENE,76,3.5,3.5,77,0.00,CLR,,0.00,146.0,WeatherDisplay:10.37,2013-01-19 09:07:00,
2013-01-19 10:08:00,44.0,36.9,29.69,ENE,77,4.0,4.0,76,0.00,CLR,,0.00,137.0,WeatherDisplay:10.37,2013-01-19 09:08:00,
2013-01-19 10:11:00,44.1,36.7,29.69,ENE,76,3.5,3.5,75,0.00,CLR,,0.00,102.0,WeatherDisplay:10.37,2013-01-19 09:11:00,
2013-01-19 10:12:00,44.1,36.7,29.69,ENE,76,3.5,3.5,75,0.00,CLR,,0.00,93.0,WeatherDisplay:10.37,2013-01-19 09:12:00,
2013-01-19 10:13:00,44.2,36.4,29.69,ENE,77,3.5,3.5,74,0.00,CLR,,0.00,84.0,WeatherDisplay:10.37,2013-01-19 09:13:00,
2013-01-19 10:17:00,44.3,36.5,29.69,ENE,76,3.5,3.5,74,0.00,CLR,,0.00,56.0,WeatherDisplay:10.37,2013-01-19 09:17:00,
2013-01-19 10:18:00,44.3,36.2,29.69,ENE,76,3.5,3.5,73,0.00,CLR,,0.00,49.0,WeatherDisplay:10.37,2013-01-19 09:18:00,
2013-01-19 10:22:00,44.4,36.3,29.69,ENE,76,1.1,0.0,73,0.00,FEW,,0.00,65.0,WeatherDisplay:10.37,2013-01-19 09:22:00,
2013-01-19 10:23:00,44.4,35.9,29.69,ENE,77,1.1,1.1,72,0.00,FEW,,0.00,74.0,WeatherDisplay:10.37,2013-01-19 09:23:00,
2013-01-19 10:27:00,44.6,36.1,29.69,ENE,76,0.0,0.0,72,0.00,FEW,,0.00,100.0,WeatherDisplay:10.37,2013-01-19 09:27:00,
2013-01-19 10:28:00,44.6,36.1,29.69,ENE,76,0.0,0.0,72,0.00,FEW,,0.00,100.0,WeatherDisplay:10.37,2013-01-19 09:28:00,
2013-01-19 10:32:00,44.9,36.1,29.69,ENE,76,0.0,0.0,71,0.00,FEW,,0.00,125.0,WeatherDisplay:10.37,2013-01-19 09:32:00,
2013-01-19 10:33:00,44.9,36.1,29.69,ENE,76,0.0,0.0,71,0.00,FEW,,0.00,125.0,WeatherDisplay:10.37,2013-01-19 09:33:00,
2013-01-19 10:38:00,45.2,36.4,29.69,ENE,76,0.0,0.0,71,0.00,CLR,,0.00,142.0,WeatherDisplay:10.37,2013-01-19 09:38:00,
2013-01-19 10:43:00,45.5,37.0,29.70,ENE,76,0.0,0.0,72,0.00,CLR,,0.00,141.0,WeatherDisplay:10.37,2013-01-19 09:43:00,
2013-01-19 10:44:00,45.6,37.1,29.70,ENE,76,0.0,0.0,72,0.00,CLR,,0.00,135.0,WeatherDisplay:10.37,2013-01-19 09:44:00,
2013-01-19 10:48:00,45.5,36.6,29.70,ENE,77,0.0,0.0,71,0.00,CLR,,0.00,121.0,WeatherDisplay:10.37,2013-01-19 09:48:00,
2013-01-19 10:49:00,45.5,36.6,29.70,ENE,76,0.0,0.0,71,0.00,FEW,,0.00,118.0,WeatherDisplay:10.37,2013-01-19 09:49:00,
2013-01-19 10:53:00,45.6,36.7,29.70,ENE,76,0.0,0.0,71,0.00,FEW,,0.00,104.0,WeatherDisplay:10.37,2013-01-19 09:53:00,
2013-01-19 10:54:00,45.7,36.8,29.70,ENE,76,0.0,0.0,71,0.00,FEW,,0.00,104.0,WeatherDisplay:10.37,2013-01-19 09:54:00,
2013-01-19 10:58:00,45.8,37.3,29.70,ENE,77,0.0,0.0,72,0.00,FEW,,0.00,104.0,WeatherDisplay:10.37,2013-01-19 09:58:00,
2013-01-19 10:59:00,45.8,37.3,29.70,ENE,76,0.0,0.0,72,0.00,FEW,,0.00,104.0,WeatherDisplay:10.37,2013-01-19 09:59:00,
2013-01-19 11:04:00,45.9,37.0,29.70,ENE,76,0.0,0.0,71,0.00,FEW,,0.00,97.0,WeatherDisplay:10.37,2013-01-19 10:04:00,
2013-01-19 11:05:00,45.9,37.0,29.70,ENE,76,0.0,0.0,71,0.00,FEW,,0.00,95.0,WeatherDisplay:10.37,2013-01-19 10:05:00,
2013-01-19 11:09:00,45.9,37.0,29.69,ENE,76,0.0,0.0,71,0.00,FEW,,0.00,95.0,WeatherDisplay:10.37,2013-01-19 10:09:00,
2013-01-19 11:10:00,45.9,37.0,29.69,ENE,76,2.3,2.3,71,0.00,FEW,,0.00,95.0,WeatherDisplay:10.37,2013-01-19 10:10:00,
2013-01-19 11:14:00,45.9,37.0,29.69,ENE,76,0.0,0.0,71,0.00,FEW,,0.00,102.0,WeatherDisplay:10.37,2013-01-19 10:14:00,
2013-01-19 11:15:00,45.9,37.0,29.69,ENE,77,0.0,0.0,71,0.00,FEW,,0.00,109.0,WeatherDisplay:10.37,2013-01-19 10:15:00,
2013-01-19 11:19:00,46.0,37.1,29.69,ENE,76,2.0,2.0,71,0.00,FEW,,0.00,123.0,WeatherDisplay:10.37,2013-01-19 10:19:00,
2013-01-19 11:20:00,46.0,37.1,29.69,ENE,76,1.1,1.3,71,0.00,FEW,,0.00,123.0,WeatherDisplay:10.37,2013-01-19 10:20:00,
2013-01-19 11:24:00,46.0,36.8,29.70,ENE,76,0.0,0.0,70,0.00,FEW,,0.00,104.0,WeatherDisplay:10.37,2013-01-19 10:24:00,
2013-01-19 11:25:00,46.0,36.8,29.70,ENE,76,0.0,0.0,70,0.00,FEW,,0.00,104.0,WeatherDisplay:10.37,2013-01-19 10:25:00,
2013-01-19 11:26:00,46.0,36.8,29.69,ENE,76,0.0,0.0,70,0.00,FEW,,0.00,105.0,WeatherDisplay:10.37,2013-01-19 10:26:00,
2013-01-19 11:29:00,46.0,36.8,29.69,ENE,76,0.0,0.0,70,0.00,FEW,,0.00,109.0,WeatherDisplay:10.37,2013-01-19 10:29:00,
2013-01-19 11:30:00,46.0,36.8,29.69,ENE,76,0.0,0.0,70,0.00,FEW,,0.00,109.0,WeatherDisplay:10.37,2013-01-19 10:30:00,
2013-01-19 11:31:00,46.0,36.8,29.69,ENE,76,0.0,0.0,70,0.00,FEW,,0.00,109.0,WeatherDisplay:10.37,2013-01-19 10:31:00,
2013-01-19 11:34:00,46.1,36.9,29.69,ENE,76,1.1,1.1,70,0.00,FEW,,0.00,134.0,WeatherDisplay:10.37,2013-01-19 10:34:00,
2013-01-19 11:35:00,46.1,36.9,29.69,ENE,76,1.1,1.1,70,0.00,FEW,,0.00,134.0,WeatherDisplay:10.37,2013-01-19 10:35:00,
2013-01-19 11:38:00,46.1,36.9,29.69,ENE,76,1.1,1.1,70,0.00,FEW,,0.00,134.0,WeatherDisplay:10.37,2013-01-19 10:38:00,
2013-01-19 11:39:00,46.1,36.9,29.69,ENE,76,1.1,1.1,70,0.00,FEW,,0.00,134.0,WeatherDisplay:10.37,2013-01-19 10:39:00,
2013-01-19 11:40:00,46.2,36.6,29.69,ENE,76,1.1,1.1,69,0.00,OVC,,0.00,139.0,WeatherDisplay:10.37,2013-01-19 10:40:00,
2013-01-19 11:43:00,46.2,36.6,29.69,ENE,76,3.5,3.5,69,0.00,FEW,,0.00,137.0,WeatherDisplay:10.37,2013-01-19 10:43:00,
2013-01-19 11:44:00,46.3,36.7,29.69,ENE,76,2.3,2.3,69,0.00,FEW,,0.00,139.0,WeatherDisplay:10.37,2013-01-19 10:44:00,
2013-01-19 11:46:00,46.3,37.0,29.69,ENE,76,1.1,0.0,70,0.00,FEW,,0.00,135.0,WeatherDisplay:10.37,2013-01-19 10:46:00,
2013-01-19 11:48:00,46.4,37.1,29.69,ENE,76,2.3,2.3,70,0.00,FEW,,0.00,130.0,WeatherDisplay:10.37,2013-01-19 10:48:00,
2013-01-19 11:49:00,46.4,37.1,29.69,ENE,76,2.3,2.3,70,0.00,FEW,,0.00,130.0,WeatherDisplay:10.37,2013-01-19 10:49:00,
2013-01-19 11:51:00,46.4,37.1,29.69,ENE,76,3.0,3.0,70,0.00,FEW,,0.00,118.0,WeatherDisplay:10.37,2013-01-19 10:51:00,
2013-01-19 11:53:00,46.5,37.2,29.69,ENE,77,2.3,2.3,70,0.00,FEW,,0.00,111.0,WeatherDisplay:10.37,2013-01-19 10:53:00,
2013-01-19 11:54:00,46.5,37.2,29.68,ENE,76,3.5,3.5,70,0.00,FEW,,0.00,113.0,WeatherDisplay:10.37,2013-01-19 10:54:00,
2013-01-19 11:56:00,46.5,37.2,29.68,ENE,76,3.5,3.5,70,0.00,FEW,,0.00,109.0,WeatherDisplay:10.37,2013-01-19 10:56:00,
2013-01-19 11:58:00,46.5,37.2,29.68,ENE,76,3.5,3.5,70,0.00,FEW,,0.00,88.0,WeatherDisplay:10.37,2013-01-19 10:58:00,
2013-01-19 11:59:00,46.4,37.1,29.68,ENE,76,3.5,3.5,70,0.00,FEW,,0.00,81.0,WeatherDisplay:10.37,2013-01-19 10:59:00,
2013-01-19 12:00:00,46.4,37.1,29.68,ENE,76,3.5,3.5,70,0.00,FEW,,0.00,76.0,WeatherDisplay:10.37,2013-01-19 11:00:00,
2013-01-19 12:01:00,46.4,37.1,29.68,ENE,76,2.3,2.3,70,0.00,FEW,,0.00,72.0,WeatherDisplay:10.37,2013-01-19 11:01:00,
2013-01-19 12:04:00,46.3,37.0,29.68,ENE,76,3.5,3.5,70,0.00,SCT,,0.00,63.0,WeatherDisplay:10.37,2013-01-19 11:04:00,
2013-01-19 12:05:00,46.3,37.0,29.68,ENE,76,2.3,2.3,70,0.00,SCT,,0.00,56.0,WeatherDisplay:10.37,2013-01-19 11:05:00,
2013-01-19 12:06:00,46.2,37.0,29.68,ENE,76,3.5,3.5,70,0.00,SCT,,0.00,56.0,WeatherDisplay:10.37,2013-01-19 11:06:00,
2013-01-19 12:09:00,46.2,37.0,29.68,ENE,76,3.5,3.5,70,0.00,SCT,,0.00,72.0,WeatherDisplay:10.37,2013-01-19 11:09:00,
2013-01-19 12:10:00,46.2,37.0,29.68,ENE,76,3.5,3.5,70,0.00,SCT,,0.00,86.0,WeatherDisplay:10.37,2013-01-19 11:10:00,
2013-01-19 12:11:00,46.1,36.9,29.68,ENE,76,3.5,3.5,70,0.00,SCT,,0.00,90.0,WeatherDisplay:10.37,2013-01-19 11:11:00,
2013-01-19 13:47:00,44.8,37.4,29.65,East,83,9.2,9.2,75,0.00,SCT,,0.00,42.0,WeatherDisplay:10.37,2013-01-19 12:47:00,
2013-01-19 13:48:00,44.8,37.4,29.65,ENE,64,10.4,10.4,75,0.00,SCT,,0.00,42.0,WeatherDisplay:10.37,2013-01-19 12:48:00,
2013-01-19 13:53:00,44.7,37.3,29.65,ENE,67,9.2,9.2,75,0.00,BKN,,0.00,44.0,WeatherDisplay:10.37,2013-01-19 12:53:00,
2013-01-19 13:58:00,44.6,37.5,29.65,East,80,10.4,10.4,76,0.00,BKN,,0.00,44.0,WeatherDisplay:10.37,2013-01-19 12:58:00,
2013-01-19 13:59:00,44.6,37.5,29.65,ENE,78,10.4,10.4,76,0.00,BKN,,0.00,47.0,WeatherDisplay:10.37,2013-01-19 12:59:00,
2013-01-19 14:03:00,44.6,37.5,29.65,ENE,57,8.1,8.1,76,0.00,SCT,,0.00,49.0,WeatherDisplay:10.37,2013-01-19 13:03:00,
2013-01-19 14:04:00,44.5,37.4,29.65,ENE,60,9.2,9.2,76,0.00,SCT,,0.00,49.0,WeatherDisplay:10.37,2013-01-19 13:04:00,
2013-01-19 14:08:00,44.5,37.4,29.65,ENE,71,8.1,8.1,76,0.00,SCT,,0.00,40.0,WeatherDisplay:10.37,2013-01-19 13:08:00,
2013-01-19 14:09:00,44.5,37.4,29.65,ENE,77,6.9,6.9,76,0.00,SCT,,0.00,39.0,WeatherDisplay:10.37,2013-01-19 13:09:00,
2013-01-19 14:13:00,44.6,37.5,29.65,ENE,75,4.6,4.6,76,0.00,BKN,,0.00,35.0,WeatherDisplay:10.37,2013-01-19 13:13:00,
2013-01-19 14:14:00,44.6,37.5,29.65,ENE,75,5.0,5.0,76,0.00,BKN,,0.00,35.0,WeatherDisplay:10.37,2013-01-19 13:14:00,
2013-01-19 14:15:00,44.6,37.5,29.65,ENE,75,5.0,5.0,76,0.00,BKN,,0.00,35.0,WeatherDisplay:10.37,2013-01-19 13:15:00,
2013-01-19 14:18:00,44.7,37.6,29.65,ENE,76,7.0,7.0,76,0.00,BKN,,0.00,35.0,WeatherDisplay:10.37,2013-01-19 13:18:00,
2013-01-19 14:19:00,44.7,37.6,29.65,ENE,75,6.9,6.9,76,0.00,BKN,,0.00,33.0,WeatherDisplay:10.37,2013-01-19 13:19:00,
2013-01-19 14:20:00,44.7,37.6,29.64,ENE,65,8.1,8.1,76,0.00,BKN,,0.00,33.0,WeatherDisplay:10.37,2013-01-19 13:20:00,
2013-01-19 14:23:00,44.8,37.7,29.64,East,83,7.0,7.0,76,0.00,BKN,,0.00,33.0,WeatherDisplay:10.37,2013-01-19 13:23:00,
2013-01-19 14:24:00,44.8,37.7,29.64,ENE,76,6.9,6.9,76,0.00,BKN,,0.00,35.0,WeatherDisplay:10.37,2013-01-19 13:24:00,
2013-01-19 14:25:00,44.8,37.7,29.64,East,81,8.1,8.1,76,0.00,BKN,,0.00,39.0,WeatherDisplay:10.37,2013-01-19 13:25:00,
2013-01-19 14:29:00,44.8,37.7,29.64,ENE,58,8.1,8.1,76,0.00,BKN,,0.00,35.0,WeatherDisplay:10.37,2013-01-19 13:29:00,
2013-01-19 14:30:00,44.7,37.6,29.64,ENE,62,9.2,9.2,76,0.00,BKN,,0.00,33.0,WeatherDisplay:10.37,2013-01-19 13:30:00,
2013-01-19 14:34:00,44.7,37.6,29.64,ENE,64,8.1,8.1,76,0.00,BKN,,0.00,47.0,WeatherDisplay:10.37,2013-01-19 13:34:00,
2013-01-19 14:35:00,44.7,37.6,29.64,ENE,67,6.9,6.9,76,0.00,BKN,,0.00,54.0,WeatherDisplay:10.37,2013-01-19 13:35:00,
2013-01-19 14:39:00,44.8,37.7,29.64,East,82,8.1,8.1,76,0.00,BKN,,0.00,28.0,WeatherDisplay:10.37,2013-01-19 13:39:00,
2013-01-19 14:40:00,44.8,37.7,29.64,East,82,8.1,8.1,76,0.00,BKN,,0.00,26.0,WeatherDisplay:10.37,2013-01-19 13:40:00,
2013-01-19 14:44:00,44.9,37.8,29.64,ENE,63,7.0,7.0,76,0.00,BKN,,0.00,23.0,WeatherDisplay:10.37,2013-01-19 13:44:00,
2013-01-19 14:45:00,44.9,37.8,29.64,ENE,70,9.0,9.0,76,0.00,BKN,,0.00,23.0,WeatherDisplay:10.37,2013-01-19 13:45:00,
2013-01-19 14:46:00,44.9,37.8,29.64,ENE,63,9.2,9.2,76,0.00,BKN,,0.00,25.0,WeatherDisplay:10.37,2013-01-19 13:46:00,
2013-01-19 14:49:00,45.0,37.9,29.64,ENE,63,9.2,9.2,76,0.00,BKN,,0.00,26.0,WeatherDisplay:10.37,2013-01-19 13:49:00,
2013-01-19 14:50:00,45.0,37.9,29.64,ENE,67,8.1,8.1,76,0.00,BKN,,0.00,30.0,WeatherDisplay:10.37,2013-01-19 13:50:00,
2013-01-19 14:52:00,45.0,37.9,29.64,ENE,63,9.2,9.2,76,0.00,BKN,,0.00,30.0,WeatherDisplay:10.37,2013-01-19 13:52:00,
2013-01-19 14:54:00,45.0,37.9,29.63,NE,55,10.4,10.4,76,0.00,BKN,,0.00,26.0,WeatherDisplay:10.37,2013-01-19 13:54:00,
2013-01-19 14:55:00,45.0,37.9,29.64,ENE,67,10.4,10.4,76,0.00,BKN,,0.00,32.0,WeatherDisplay:10.37,2013-01-19 13:55:00,
2013-01-19 14:57:00,45.0,37.9,29.64,ENE,59,10.4,10.4,76,0.00,BKN,,0.00,32.0,WeatherDisplay:10.37,2013-01-19 13:57:00,
2013-01-19 14:59:00,45.1,38.0,29.63,ENE,74,9.2,9.2,76,0.00,BKN,,0.00,30.0,WeatherDisplay:10.37,2013-01-19 13:59:00,
2013-01-19 15:01:00,45.1,38.0,29.63,ENE,65,9.2,9.2,76,0.00,BKN,,0.00,26.0,WeatherDisplay:10.37,2013-01-19 14:01:00,
2013-01-19 15:02:00,45.1,38.0,29.63,ENE,67,9.2,9.2,76,0.00,BKN,,0.00,23.0,WeatherDisplay:10.37,2013-01-19 14:02:00,
2013-01-19 15:04:00,45.1,38.0,29.63,ENE,61,11.5,11.5,76,0.00,BKN,,0.00,21.0,WeatherDisplay:10.37,2013-01-19 14:04:00,
2013-01-19 15:06:00,45.1,38.3,29.63,ENE,65,8.1,8.1,77,0.00,BKN,,0.00,19.0,WeatherDisplay:10.37,2013-01-19 14:06:00,
2013-01-19 15:07:00,45.1,38.3,29.63,ENE,65,9.2,9.2,77,0.00,BKN,,0.00,21.0,WeatherDisplay:10.37,2013-01-19 14:07:00,
2013-01-19 15:09:00,45.1,38.3,29.63,ENE,60,8.1,8.1,77,0.00,BKN,,0.00,23.0,WeatherDisplay:10.37,2013-01-19 14:09:00,
2013-01-19 15:10:00,45.1,38.3,29.63,ENE,62,8.1,8.1,77,0.00,BKN,,0.00,23.0,WeatherDisplay:10.37,2013-01-19 14:10:00,
2013-01-19 15:11:00,45.1,38.3,29.63,ENE,59,8.1,8.1,77,0.00,BKN,,0.00,28.0,WeatherDisplay:10.37,2013-01-19 14:11:00,
2013-01-19 15:12:00,45.1,38.3,29.63,NE,55,9.2,9.2,77,0.00,BKN,,0.00,26.0,WeatherDisplay:10.37,2013-01-19 14:12:00,
2013-01-19 15:14:00,45.1,38.3,29.63,ENE,57,6.9,6.9,77,0.00,BKN,,0.00,25.0,WeatherDisplay:10.37,2013-01-19 14:14:00,
2013-01-19 15:15:00,45.1,38.3,29.63,NE,56,8.1,8.1,77,0.00,BKN,,0.00,25.0,WeatherDisplay:10.37,2013-01-19 14:15:00,
2013-01-19 15:16:00,45.1,38.3,29.63,NE,45,8.1,8.1,77,0.00,BKN,,0.00,14.0,WeatherDisplay:10.37,2013-01-19 14:16:00,
2013-01-19 15:17:00,45.1,38.3,29.64,NE,53,9.2,9.2,77,0.00,BKN,,0.00,14.0,WeatherDisplay:10.37,2013-01-19 14:17:00,
2013-01-19 15:19:00,45.1,38.3,29.64,ENE,63,9.2,9.2,77,0.00,BKN,,0.00,14.0,WeatherDisplay:10.37,2013-01-19 14:19:00,
2013-01-19 15:20:00,45.1,38.3,29.64,ENE,67,9.2,9.2,77,0.00,BKN,,0.00,14.0,WeatherDisplay:10.37,2013-01-19 14:20:00,
2013-01-19 15:22:00,45.1,38.3,29.64,NE,55,9.2,9.2,77,0.00,BKN,,0.00,14.0,WeatherDisplay:10.37,2013-01-19 14:22:00,
2013-01-19 15:25:00,45.1,38.3,29.63,ENE,61,11.5,11.5,77,0.00,BKN,,0.00,12.0,WeatherDisplay:10.37,2013-01-19 14:25:00,
2013-01-19 15:27:00,45.2,38.7,29.63,ENE,67,4.6,4.6,78,0.00,BKN,,0.00,12.0,WeatherDisplay:10.37,2013-01-19 14:27:00,
2013-01-19 15:30:00,45.2,38.7,29.63,ENE,75,9.0,9.0,78,0.00,BKN,,0.00,21.0,WeatherDisplay:10.37,2013-01-19 14:30:00,
2013-01-19 15:31:00,45.1,38.6,29.63,East,84,9.2,9.2,78,0.00,BKN,,0.00,23.0,WeatherDisplay:10.37,2013-01-19 14:31:00,
2013-01-19 15:32:00,45.1,38.6,29.63,ENE,57,11.5,11.5,78,0.00,BKN,,0.00,25.0,WeatherDisplay:10.37,2013-01-19 14:32:00,
2013-01-19 15:33:00,45.1,38.6,29.63,ENE,69,11.5,11.5,78,0.00,BKN,,0.00,23.0,WeatherDisplay:10.37,2013-01-19 14:33:00,
2013-01-19 15:35:00,45.1,38.6,29.63,ENE,66,10.4,10.4,78,0.00,BKN,,0.00,21.0,WeatherDisplay:10.37,2013-01-19 14:35:00,
2013-01-19 15:36:00,45.1,38.6,29.63,ENE,65,10.4,10.4,78,0.00,BKN,,0.00,18.0,WeatherDisplay:10.37,2013-01-19 14:36:00,
2013-01-19 15:38:00,45.1,38.6,29.63,NE,54,9.2,9.2,78,0.00,BKN,,0.00,18.0,WeatherDisplay:10.37,2013-01-19 14:38:00,
2013-01-19 15:40:00,45.1,38.6,29.63,ENE,71,9.2,9.2,78,0.00,BKN,,0.00,19.0,WeatherDisplay:10.37,2013-01-19 14:40:00,
2013-01-19 15:41:00,45.1,38.6,29.63,ENE,61,9.2,9.2,78,0.00,BKN,,0.00,19.0,WeatherDisplay:10.37,2013-01-19 14:41:00,
2013-01-19 15:43:00,45.1,38.6,29.63,ENE,60,9.2,9.2,78,0.00,BKN,,0.00,18.0,WeatherDisplay:10.37,2013-01-19 14:43:00,
2013-01-19 15:45:00,45.1,38.6,29.63,East,84,9.2,9.2,78,0.00,BKN,,0.00,19.0,WeatherDisplay:10.37,2013-01-19 14:45:00,
2013-01-19 15:46:00,45.2,38.7,29.63,ENE,63,9.2,9.2,78,0.00,BKN,,0.00,19.0,WeatherDisplay:10.37,2013-01-19 14:46:00,
2013-01-19 15:48:00,45.2,38.7,29.63,NE,56,10.4,10.4,78,0.00,BKN,,0.00,18.0,WeatherDisplay:10.37,2013-01-19 14:48:00,
2013-01-19 15:50:00,45.2,38.7,29.63,ENE,58,9.2,9.2,78,0.00,BKN,,0.00,18.0,WeatherDisplay:10.37,2013-01-19 14:50:00,
2013-01-19 15:52:00,45.2,38.7,29.63,ENE,66,9.2,9.2,78,0.00,BKN,,0.00,19.0,WeatherDisplay:10.37,2013-01-19 14:52:00,
2013-01-19 15:53:00,45.2,38.7,29.63,NE,55,9.2,9.2,78,0.00,BKN,,0.00,28.0,WeatherDisplay:10.37,2013-01-19 14:53:00,
2013-01-19 15:54:00,45.2,38.7,29.63,NE,38,10.4,10.4,78,0.00,BKN,,0.00,32.0,WeatherDisplay:10.37,2013-01-19 14:54:00,
2013-01-19 15:55:00,45.2,38.7,29.63,NE,47,9.2,9.2,78,0.00,BKN,,0.00,33.0,WeatherDisplay:10.37,2013-01-19 14:55:00,
2013-01-19 15:57:00,45.2,38.7,29.63,ENE,59,8.0,8.0,78,0.00,BKN,,0.00,25.0,WeatherDisplay:10.37,2013-01-19 14:57:00,
2013-01-19 15:59:00,45.2,38.7,29.63,ENE,58,7.0,7.0,78,0.00,BKN,,0.00,25.0,WeatherDisplay:10.37,2013-01-19 14:59:00,
2013-01-19 16:00:00,45.2,38.7,29.63,ENE,59,6.9,6.9,78,0.00,BKN,,0.00,18.0,WeatherDisplay:10.37,2013-01-19 15:00:00,
2013-01-19 16:02:00,45.2,38.7,29.63,ENE,60,9.2,9.2,78,0.00,BKN,,0.00,16.0,WeatherDisplay:10.37,2013-01-19 15:02:00,
2013-01-19 16:04:00,45.2,39.1,29.63,ENE,70,9.0,9.0,79,0.00,BKN,,0.00,16.0,WeatherDisplay:10.37,2013-01-19 15:04:00,
2013-01-19 16:05:00,45.2,39.1,29.63,ENE,72,10.4,10.4,79,0.00,BKN,,0.00,14.0,WeatherDisplay:10.37,2013-01-19 15:05:00,
2013-01-19 16:07:00,45.2,39.1,29.63,ENE,62,10.4,10.4,79,0.00,BKN,,0.00,11.0,WeatherDisplay:10.37,2013-01-19 15:07:00,
2013-01-19 16:09:00,45.2,39.1,29.63,ENE,63,9.2,9.2,79,0.00,BKN,,0.00,12.0,WeatherDisplay:10.37,2013-01-19 15:09:00,
2013-01-19 16:10:00,45.2,39.1,29.63,ENE,63,11.0,11.0,79,0.00,BKN,,0.00,12.0,WeatherDisplay:10.37,2013-01-19 15:10:00,
2013-01-19 16:12:00,45.1,39.0,29.63,ENE,77,8.1,8.1,79,0.00,BKN,,0.00,12.0,WeatherDisplay:10.37,2013-01-19 15:12:00,
2013-01-19 16:14:00,45.1,39.0,29.63,ENE,71,7.0,7.0,79,0.00,BKN,,0.00,12.0,WeatherDisplay:10.37,2013-01-19 15:14:00,
2013-01-19 16:15:00,45.1,39.3,29.63,ENE,71,8.1,8.1,80,0.00,BKN,,0.00,12.0,WeatherDisplay:10.37,2013-01-19 15:15:00,
2013-01-19 16:17:00,45.0,39.2,29.63,ENE,58,6.9,6.9,80,0.00,BKN,,0.00,9.0,WeatherDisplay:10.37,2013-01-19 15:17:00,
2013-01-19 16:19:00,45.0,39.2,29.64,ENE,58,5.8,5.8,80,0.00,BKN,,0.00,9.0,WeatherDisplay:10.37,2013-01-19 15:19:00,
2013-01-19 16:20:00,45.0,39.2,29.64,ENE,59,6.9,6.9,80,0.00,BKN,,0.00,9.0,WeatherDisplay:10.37,2013-01-19 15:20:00,
2013-01-19 16:22:00,44.9,39.1,29.63,ENE,62,9.2,9.2,80,0.00,BKN,,0.00,9.0,WeatherDisplay:10.37,2013-01-19 15:22:00,
2013-01-19 16:24:00,44.9,39.1,29.64,ENE,62,7.0,7.0,80,0.00,BKN,,0.00,11.0,WeatherDisplay:10.37,2013-01-19 15:24:00,
2013-01-19 16:25:00,44.9,39.4,29.64,NE,47,8.1,8.1,81,0.00,BKN,,0.00,11.0,WeatherDisplay:10.37,2013-01-19 15:25:00,
2013-01-19 16:27:00,44.9,39.4,29.63,ENE,57,6.9,6.9,81,0.00,BKN,,0.00,9.0,WeatherDisplay:10.37,2013-01-19 15:27:00,
2013-01-19 16:29:00,44.9,39.4,29.64,NE,48,8.1,8.1,81,0.00,BKN,,0.00,7.0,WeatherDisplay:10.37,2013-01-19 15:29:00,
2013-01-19 16:30:00,44.9,39.4,29.63,NE,51,8.1,8.1,81,0.00,BKN,,0.00,7.0,WeatherDisplay:10.37,2013-01-19 15:30:00,
2013-01-19 16:31:00,44.9,39.4,29.63,NE,55,6.9,6.9,81,0.00,BKN,,0.00,7.0,WeatherDisplay:10.37,2013-01-19 15:31:00,
2013-01-19 16:33:00,44.9,39.7,29.64,ENE,60,8.1,8.1,82,0.00,BKN,,0.00,5.0,WeatherDisplay:10.37,2013-01-19 15:33:00,
2013-01-19 16:34:00,44.9,39.7,29.64,ENE,59,8.1,8.1,82,0.00,BKN,,0.00,0.0,WeatherDisplay:10.37,2013-01-19 15:34:00,
2013-01-19 16:35:00,44.9,39.7,29.64,ENE,64,7.0,7.0,82,0.00,BKN,,0.00,0.0,WeatherDisplay:10.37,2013-01-19 15:35:00,
2013-01-19 16:36:00,44.9,39.7,29.64,ENE,59,6.9,6.9,82,0.00,BKN,,0.00,0.0,WeatherDisplay:10.37,2013-01-19 15:36:00,
2013-01-19 16:38:00,44.9,39.7,29.63,NE,52,6.9,6.9,82,0.00,BKN,,0.00,0.0,WeatherDisplay:10.37,2013-01-19 15:38:00,
2013-01-19 16:40:00,44.9,39.7,29.63,ENE,63,9.2,9.2,82,0.00,BKN,,0.00,0.0,WeatherDisplay:10.37,2013-01-19 15:40:00,
2013-01-19 16:41:00,44.9,39.7,29.63,ENE,67,11.5,11.5,82,0.00,BKN,,0.00,0.0,WeatherDisplay:10.37,2013-01-19 15:41:00,
2013-01-19 16:43:00,44.9,40.0,29.63,ENE,62,9.2,9.2,83,0.00,BKN,,0.00,0.0,WeatherDisplay:10.37,2013-01-19 15:43:00,
2013-01-19 16:45:00,44.8,40.0,29.63,ENE,63,9.2,9.2,83,0.00,BKN,,0.00,0.0,WeatherDisplay:10.37,2013-01-19 15:45:00,
2013-01-19 16:46:00,44.8,40.0,29.63,ENE,59,8.1,8.1,83,0.00,BKN,,0.00,0.0,WeatherDisplay:10.37,2013-01-19 15:46:00,
2013-01-19 16:47:00,44.7,39.9,29.63,ENE,63,9.2,9.2,83,0.00,BKN,,0.00,0.0,WeatherDisplay:10.37,2013-01-19 15:47:00,
2013-01-19 16:48:00,44.7,39.9,29.63,NE,46,10.4,10.4,83,0.00,BKN,,0.00,0.0,WeatherDisplay:10.37,2013-01-19 15:48:00,
2013-01-19 16:50:00,44.6,39.8,29.63,NE,56,9.2,9.2,83,0.00,BKN,,0.00,0.0,WeatherDisplay:10.37,2013-01-19 15:50:00,
2013-01-19 16:51:00,44.6,39.8,29.63,NE,48,8.1,8.1,83,0.00,BKN,,0.00,0.0,WeatherDisplay:10.37,2013-01-19 15:51:00,
2013-01-19 16:52:00,44.6,39.8,29.63,NE,55,8.0,8.0,83,0.00,BKN,,0.00,0.0,WeatherDisplay:10.37,2013-01-19 15:52:00,
2013-01-19 16:53:00,44.5,40.0,29.63,ENE,57,9.2,9.2,84,0.00,BKN,,0.00,0.0,WeatherDisplay:10.37,2013-01-19 15:53:00,
2013-01-19 16:55:00,44.5,40.0,29.63,NE,53,8.1,8.1,84,0.00,BKN,,0.00,0.0,WeatherDisplay:10.37,2013-01-19 15:55:00,
2013-01-19 16:56:00,44.5,40.0,29.63,NE,55,6.9,6.9,84,0.00,OVC,,0.00,0.0,WeatherDisplay:10.37,2013-01-19 15:56:00,
2013-01-19 16:57:00,44.5,40.0,29.63,ENE,58,10.0,10.0,84,0.00,OVC,,0.00,0.0,WeatherDisplay:10.37,2013-01-19 15:57:00,
2013-01-19 16:58:00,44.5,40.0,29.63,NE,51,11.5,11.5,84,0.00,OVC,,0.00,0.0,WeatherDisplay:10.37,2013-01-19 15:58:00,
2013-01-19 17:00:00,44.5,40.0,29.63,NE,56,11.5,11.5,84,0.00,OVC,,0.00,0.0,WeatherDisplay:10.37,2013-01-19 16:00:00,
2013-01-19 17:01:00,44.5,40.0,29.63,ENE,69,9.2,9.2,84,0.00,OVC,,0.00,0.0,WeatherDisplay:10.37,2013-01-19 16:01:00,
2013-01-19 17:02:00,44.5,40.3,29.63,ENE,60,9.2,9.2,85,0.00,OVC,,0.00,0.0,WeatherDisplay:10.37,2013-01-19 16:02:00,
2013-01-19 17:03:00,44.5,40.3,29.63,ENE,58,8.1,8.1,85,0.00,OVC,,0.00,0.0,WeatherDisplay:10.37,2013-01-19 16:03:00,
2013-01-19 17:05:00,44.5,40.3,29.63,ENE,59,5.0,5.0,85,0.00,OVC,,0.00,0.0,WeatherDisplay:10.37,2013-01-19 16:05:00,
2013-01-19 17:06:00,44.5,40.3,29.63,ENE,59,8.1,8.1,85,0.00,OVC,,0.01,0.0,WeatherDisplay:10.37,2013-01-19 16:06:00,
2013-01-19 17:07:00,44.5,40.3,29.63,ENE,62,10.4,10.4,85,0.01,RA,,0.01,0.0,WeatherDisplay:10.37,2013-01-19 16:07:00,
2013-01-19 17:08:00,44.4,40.2,29.63,ENE,62,9.2,9.2,85,0.01,RA,,0.01,0.0,WeatherDisplay:10.37,2013-01-19 16:08:00,
2013-01-19 17:10:00,44.4,40.2,29.63,ENE,61,10.4,10.4,85,0.01,RA,,0.01,0.0,WeatherDisplay:10.37,2013-01-19 16:10:00,
2013-01-19 17:11:00,44.4,40.2,29.63,NE,55,10.4,10.4,85,0.01,RA,,0.01,0.0,WeatherDisplay:10.37,2013-01-19 16:11:00,
2013-01-19 17:12:00,44.4,40.2,29.63,ENE,67,9.2,9.2,85,0.01,RA,,0.01,0.0,WeatherDisplay:10.37,2013-01-19 16:12:00,
2013-01-19 17:13:00,44.4,40.2,29.63,ENE,61,9.2,9.2,85,0.01,RA,,0.01,0.0,WeatherDisplay:10.37,2013-01-19 16:13:00,
2013-01-19 17:15:00,44.4,40.2,29.63,NE,48,11.5,11.5,85,0.01,RA,,0.01,0.0,WeatherDisplay:10.37,2013-01-19 16:15:00,
2013-01-19 17:16:00,44.4,40.2,29.63,NE,56,11.5,11.5,85,0.01,RA,,0.01,0.0,WeatherDisplay:10.37,2013-01-19 16:16:00,
2013-01-19 17:17:00,44.4,40.5,29.63,ENE,61,8.1,8.1,86,0.01,,,0.01,0.0,WeatherDisplay:10.37,2013-01-19 16:17:00,
2013-01-19 17:18:00,44.4,40.5,29.63,ENE,66,7.0,7.0,86,0.01,,,0.01,0.0,WeatherDisplay:10.37,2013-01-19 16:18:00,
2013-01-19 17:20:00,44.5,40.6,29.63,ENE,62,7.0,7.0,86,0.01,CLR,,0.01,0.0,WeatherDisplay:10.37,2013-01-19 16:20:00,
2013-01-19 17:22:00,44.5,40.6,29.63,NE,46,8.1,8.1,86,0.01,CLR,,0.01,0.0,WeatherDisplay:10.37,2013-01-19 16:22:00,
2013-01-19 17:23:00,44.5,40.6,29.63,ENE,74,8.1,8.1,86,0.01,CLR,,0.01,0.0,WeatherDisplay:10.37,2013-01-19 16:23:00,
2013-01-19 17:26:00,44.5,40.6,29.63,ENE,70,10.4,10.4,86,0.01,OVC,,0.01,0.0,WeatherDisplay:10.37,2013-01-19 16:26:00,
2013-01-19 17:27:00,44.5,40.6,29.63,ENE,69,9.0,9.0,86,0.01,OVC,,0.01,0.0,WeatherDisplay:10.37,2013-01-19 16:27:00,
2013-01-19 17:28:00,44.5,40.6,29.63,ENE,71,10.4,10.4,86,0.01,OVC,,0.01,0.0,WeatherDisplay:10.37,2013-01-19 16:28:00,
2013-01-19 17:29:00,44.5,40.6,29.63,ENE,71,6.9,6.9,86,0.01,OVC,,0.01,0.0,WeatherDisplay:10.37,2013-01-19 16:29:00,
2013-01-19 17:31:00,44.5,40.6,29.63,ENE,66,8.1,8.1,86,0.01,OVC,,0.01,0.0,WeatherDisplay:10.37,2013-01-19 16:31:00,
2013-01-19 17:32:00,44.5,40.6,29.63,ENE,65,9.0,9.0,86,0.01,OVC,,0.01,0.0,WeatherDisplay:10.37,2013-01-19 16:32:00,
2013-01-19 17:33:00,44.5,40.6,29.63,ENE,62,9.2,9.2,86,0.01,OVC,,0.01,0.0,WeatherDisplay:10.37,2013-01-19 16:33:00,
2013-01-19 17:34:00,44.5,40.6,29.64,ENE,69,10.0,10.0,86,0.01,OVC,,0.01,0.0,WeatherDisplay:10.37,2013-01-19 16:34:00,
2013-01-19 17:36:00,44.6,40.7,29.64,ENE,57,8.1,8.1,86,0.01,OVC,,0.01,0.0,WeatherDisplay:10.37,2013-01-19 16:36:00,
2013-01-19 17:37:00,44.6,40.7,29.64,ENE,65,8.1,8.1,86,0.01,OVC,,0.01,0.0,WeatherDisplay:10.37,2013-01-19 16:37:00,
2013-01-19 17:38:00,44.6,40.7,29.64,ENE,61,8.1,8.1,86,0.01,OVC,,0.01,0.0,WeatherDisplay:10.37,2013-01-19 16:38:00,
2013-01-19 17:39:00,44.6,40.7,29.64,ENE,65,9.0,9.0,86,0.01,OVC,,0.01,0.0,WeatherDisplay:10.37,2013-01-19 16:39:00,
2013-01-19 17:41:00,44.6,40.7,29.64,ENE,58,6.9,6.9,86,0.01,OVC,,0.01,0.0,WeatherDisplay:10.37,2013-01-19 16:41:00,
2013-01-19 17:43:00,44.6,40.7,29.64,ENE,60,5.0,5.0,86,0.01,OVC,,0.01,0.0,WeatherDisplay:10.37,2013-01-19 16:43:00,
2013-01-19 17:44:00,44.6,40.7,29.64,ENE,69,4.6,4.6,86,0.01,OVC,,0.01,0.0,WeatherDisplay:10.37,2013-01-19 16:44:00,
2013-01-19 17:46:00,44.6,40.7,29.64,ENE,69,4.6,4.6,86,0.01,OVC,,0.01,0.0,WeatherDisplay:10.37,2013-01-19 16:46:00,
2013-01-19 17:48:00,44.6,40.7,29.64,ENE,70,4.6,4.6,86,0.01,OVC,,0.01,0.0,WeatherDisplay:10.37,2013-01-19 16:48:00,
2013-01-19 17:49:00,44.7,40.8,29.64,ENE,70,3.5,3.5,86,0.01,OVC,,0.01,0.0,WeatherDisplay:10.37,2013-01-19 16:49:00,
2013-01-19 17:51:00,44.7,40.8,29.64,ENE,66,6.9,6.9,86,0.01,OVC,,0.01,0.0,WeatherDisplay:10.37,2013-01-19 16:51:00,
2013-01-19 17:53:00,44.7,40.8,29.64,ENE,67,5.0,5.0,86,0.01,OVC,,0.01,0.0,WeatherDisplay:10.37,2013-01-19 16:53:00,
2013-01-19 17:54:00,44.7,40.8,29.64,ENE,67,4.0,4.0,86,0.01,OVC,,0.01,0.0,WeatherDisplay:10.37,2013-01-19 16:54:00,
2013-01-19 17:57:00,44.8,40.9,29.64,ENE,62,4.6,4.6,86,0.01,OVC,,0.01,0.0,WeatherDisplay:10.37,2013-01-19 16:57:00,
2013-01-19 17:58:00,44.8,40.9,29.64,ENE,68,8.1,8.1,86,0.01,CLR,,0.01,0.0,WeatherDisplay:10.37,2013-01-19 16:58:00,
2013-01-19 17:59:00,44.8,40.9,29.64,NE,51,6.0,6.0,86,0.01,CLR,,0.01,0.0,WeatherDisplay:10.37,2013-01-19 16:59:00,
2013-01-19 18:02:00,44.8,40.9,29.64,ENE,61,4.6,4.6,86,0.01,CLR,,0.01,0.0,WeatherDisplay:10.37,2013-01-19 17:02:00,
2013-01-19 18:03:00,44.9,41.0,29.64,ENE,61,4.6,4.6,86,0.01,CLR,,0.01,0.0,WeatherDisplay:10.37,2013-01-19 17:03:00,
2013-01-19 18:04:00,44.9,41.0,29.64,ENE,59,5.0,5.0,86,0.01,CLR,,0.01,0.0,WeatherDisplay:10.37,2013-01-19 17:04:00,
2013-01-19 18:07:00,44.9,41.3,29.64,ENE,62,9.2,9.2,87,0.00,CLR,,0.01,0.0,WeatherDisplay:10.37,2013-01-19 17:07:00,
2013-01-19 18:09:00,44.9,41.3,29.64,NE,55,6.9,6.9,87,0.00,CLR,,0.01,0.0,WeatherDisplay:10.37,2013-01-19 17:09:00,
2013-01-19 18:12:00,44.9,41.3,29.64,ENE,59,9.2,9.2,87,0.00,CLR,,0.01,0.0,WeatherDisplay:10.37,2013-01-19 17:12:00,
2013-01-19 18:14:00,44.9,41.3,29.64,ENE,61,7.0,7.0,87,0.00,CLR,,0.01,0.0,WeatherDisplay:10.37,2013-01-19 17:14:00,
2013-01-19 18:18:00,45.0,41.4,29.64,ENE,61,4.6,4.6,87,0.00,CLR,,0.01,0.0,WeatherDisplay:10.37,2013-01-19 17:18:00,
2013-01-19 18:20:00,45.0,41.4,29.64,ENE,74,8.1,8.1,87,0.00,CLR,,0.01,0.0,WeatherDisplay:10.37,2013-01-19 17:20:00,
2013-01-19 18:23:00,45.0,41.4,29.64,ENE,61,8.1,8.1,87,0.00,CLR,,0.01,0.0,WeatherDisplay:10.37,2013-01-19 17:23:00,
2013-01-19 18:25:00,45.0,41.4,29.64,NE,55,5.8,5.8,87,0.00,CLR,,0.01,0.0,WeatherDisplay:10.37,2013-01-19 17:25:00,
2013-01-19 18:28:00,45.0,41.4,29.64,ENE,63,7.0,7.0,87,0.00,CLR,,0.01,0.0,WeatherDisplay:10.37,2013-01-19 17:28:00,
2013-01-19 18:30:00,45.0,41.4,29.64,ENE,61,8.1,8.1,87,0.00,CLR,,0.01,0.0,WeatherDisplay:10.37,2013-01-19 17:30:00,
2013-01-19 18:33:00,45.0,41.4,29.64,ENE,66,8.0,8.0,87,0.00,CLR,,0.01,0.0,WeatherDisplay:10.37,2013-01-19 17:33:00,
2013-01-19 18:35:00,45.0,41.4,29.65,ENE,74,6.9,6.9,87,0.00,CLR,,0.01,0.0,WeatherDisplay:10.37,2013-01-19 17:35:00,
2013-01-19 18:38:00,45.0,41.4,29.64,ENE,70,8.1,8.1,87,0.00,CLR,,0.01,0.0,WeatherDisplay:10.37,2013-01-19 17:38:00,
2013-01-19 18:40:00,45.1,41.5,29.64,ENE,78,8.0,8.0,87,0.00,CLR,,0.01,0.0,WeatherDisplay:10.37,2013-01-19 17:40:00,
2013-01-19 18:44:00,45.1,41.5,29.65,ENE,74,10.4,10.4,87,0.00,CLR,,0.01,0.0,WeatherDisplay:10.37,2013-01-19 17:44:00,
2013-01-19 18:45:00,45.1,41.5,29.64,East,80,9.2,9.2,87,0.00,CLR,,0.01,0.0,WeatherDisplay:10.37,2013-01-19 17:45:00,
2013-01-19 18:49:00,45.1,41.5,29.64,ENE,77,6.9,6.9,87,0.00,CLR,,0.01,0.0,WeatherDisplay:10.37,2013-01-19 17:49:00,
2013-01-19 18:50:00,45.1,41.5,29.64,ENE,74,7.0,7.0,87,0.00,CLR,,0.01,0.0,WeatherDisplay:10.37,2013-01-19 17:50:00,
2013-01-19 18:54:00,45.2,41.6,29.64,ENE,74,8.1,8.1,87,0.00,CLR,,0.01,0.0,WeatherDisplay:10.37,2013-01-19 17:54:00,
2013-01-19 18:55:00,45.1,41.5,29.64,ENE,78,5.0,5.0,87,0.00,CLR,,0.01,0.0,WeatherDisplay:10.37,2013-01-19 17:55:00,
2013-01-19 18:59:00,45.2,41.6,29.64,ENE,78,5.8,5.8,87,0.00,CLR,,0.01,0.0,WeatherDisplay:10.37,2013-01-19 17:59:00,
2013-01-19 19:01:00,45.2,41.6,29.64,ENE,74,5.0,5.0,87,0.00,CLR,,0.01,0.0,WeatherDisplay:10.37,2013-01-19 18:01:00,
2013-01-19 19:04:00,45.2,41.9,29.64,ENE,65,8.1,8.1,88,0.00,CLR,,0.01,0.0,WeatherDisplay:10.37,2013-01-19 18:04:00,
2013-01-19 19:06:00,45.2,41.9,29.64,East,79,8.1,8.1,88,0.00,CLR,,0.01,0.0,WeatherDisplay:10.37,2013-01-19 18:06:00,
2013-01-19 19:09:00,45.3,42.0,29.64,East,82,5.8,5.8,88,0.00,CLR,,0.01,0.0,WeatherDisplay:10.37,2013-01-19 18:09:00,
2013-01-19 19:11:00,45.3,42.0,29.64,ENE,76,6.9,6.9,88,0.00,CLR,,0.01,0.0,WeatherDisplay:10.37,2013-01-19 18:11:00,
2013-01-19 19:15:00,45.4,42.1,29.64,ENE,75,8.1,8.1,88,0.00,CLR,,0.01,0.0,WeatherDisplay:10.37,2013-01-19 18:15:00,
2013-01-19 19:16:00,45.4,42.1,29.64,East,82,10.4,10.4,88,0.00,CLR,,0.01,0.0,WeatherDisplay:10.37,2013-01-19 18:16:00,
2013-01-19 19:20:00,45.4,42.1,29.64,ENE,62,9.2,9.2,88,0.00,CLR,,0.01,0.0,WeatherDisplay:10.37,2013-01-19 18:20:00,
2013-01-19 19:21:00,45.5,42.2,29.64,ENE,68,8.1,8.1,88,0.00,CLR,,0.01,0.0,WeatherDisplay:10.37,2013-01-19 18:21:00,
2013-01-19 19:25:00,45.5,42.2,29.64,ENE,61,5.0,5.0,88,0.00,CLR,,0.01,0.0,WeatherDisplay:10.37,2013-01-19 18:25:00,
2013-01-19 19:27:00,45.5,42.2,29.64,ENE,69,8.0,8.0,88,0.00,CLR,,0.01,0.0,WeatherDisplay:10.37,2013-01-19 18:27:00,
2013-01-19 19:30:00,45.5,42.2,29.64,East,82,6.9,6.9,88,0.00,CLR,,0.01,0.0,WeatherDisplay:10.37,2013-01-19 18:30:00,
2013-01-19 19:32:00,45.5,42.2,29.64,ENE,71,5.8,5.9,88,0.00,CLR,,0.01,0.0,WeatherDisplay:10.37,2013-01-19 18:32:00,
2013-01-19 19:35:00,45.6,42.3,29.64,ENE,78,9.2,9.2,88,0.00,CLR,,0.01,0.0,WeatherDisplay:10.37,2013-01-19 18:35:00,
2013-01-19 19:37:00,45.7,42.3,29.64,ENE,69,9.0,9.0,88,0.00,CLR,,0.01,0.0,WeatherDisplay:10.37,2013-01-19 18:37:00,
2013-01-19 19:40:00,45.7,42.3,29.64,East,82,11.5,11.5,88,0.00,CLR,,0.01,0.0,WeatherDisplay:10.37,2013-01-19 18:40:00,
2013-01-19 19:43:00,45.7,42.3,29.64,East,79,8.1,8.1,88,0.00,CLR,,0.01,0.0,WeatherDisplay:10.37,2013-01-19 18:43:00,
2013-01-19 19:46:00,45.7,42.3,29.64,ENE,78,9.2,9.2,88,0.00,CLR,,0.01,0.0,WeatherDisplay:10.37,2013-01-19 18:46:00,
2013-01-19 19:49:00,45.7,42.3,29.64,East,79,8.1,8.1,88,0.00,CLR,,0.01,0.0,WeatherDisplay:10.37,2013-01-19 18:49:00,
2013-01-19 19:51:00,45.8,42.4,29.64,ENE,76,8.1,8.1,88,0.00,CLR,,0.01,0.0,WeatherDisplay:10.37,2013-01-19 18:51:00,
2013-01-19 19:54:00,45.8,42.4,29.64,ENE,61,8.1,8.1,88,0.00,CLR,,0.01,0.0,WeatherDisplay:10.37,2013-01-19 18:54:00,
2013-01-19 19:56:00,45.9,42.5,29.64,NE,40,5.8,6.4,88,0.00,CLR,,0.01,0.0,WeatherDisplay:10.37,2013-01-19 18:56:00,
2013-01-19 20:01:00,46.0,42.6,29.64,ENE,59,7.0,7.0,88,0.00,CLR,,0.01,0.0,WeatherDisplay:10.37,2013-01-19 19:01:00,
2013-01-19 20:03:00,46.0,42.6,29.64,ENE,70,7.0,7.0,88,0.00,CLR,,0.01,0.0,WeatherDisplay:10.37,2013-01-19 19:03:00,
2013-01-19 20:07:00,46.1,42.7,29.64,ENE,68,6.9,6.9,88,0.00,CLR,,0.01,0.0,WeatherDisplay:10.37,2013-01-19 19:07:00,
2013-01-19 20:08:00,46.1,42.7,29.64,NE,52,8.1,8.1,88,0.00,CLR,,0.01,0.0,WeatherDisplay:10.37,2013-01-19 19:08:00,
2013-01-19 20:12:00,46.2,42.8,29.64,ENE,69,7.0,7.0,88,0.00,CLR,,0.01,0.0,WeatherDisplay:10.37,2013-01-19 19:12:00,
2013-01-19 20:13:00,46.2,42.8,29.64,ENE,73,6.9,6.9,88,0.01,RA,,0.02,0.0,WeatherDisplay:10.37,2013-01-19 19:13:00,
2013-01-19 20:18:00,46.3,42.9,29.64,ENE,65,6.9,6.9,88,0.01,RA,,0.02,0.0,WeatherDisplay:10.37,2013-01-19 19:18:00,
2013-01-19 20:23:00,46.4,43.0,29.64,NE,51,9.2,9.2,88,0.01,,,0.02,0.0,WeatherDisplay:10.37,2013-01-19 19:23:00,
2013-01-19 20:24:00,46.4,43.0,29.64,ENE,59,8.1,8.1,88,0.01,,,0.02,0.0,WeatherDisplay:10.37,2013-01-19 19:24:00,
2013-01-19 20:28:00,46.5,43.1,29.64,ENE,65,8.1,8.1,88,0.01,CLR,,0.02,0.0,WeatherDisplay:10.37,2013-01-19 19:28:00,
2013-01-19 20:29:00,46.5,43.1,29.64,ENE,65,6.9,6.9,88,0.01,CLR,,0.02,0.0,WeatherDisplay:10.37,2013-01-19 19:29:00,
2013-01-19 20:33:00,46.5,43.1,29.64,East,80,7.0,7.0,88,0.01,CLR,,0.02,0.0,WeatherDisplay:10.37,2013-01-19 19:33:00,
2013-01-19 20:35:00,46.5,43.1,29.64,ENE,78,7.0,7.0,88,0.01,CLR,,0.02,0.0,WeatherDisplay:10.37,2013-01-19 19:35:00,
2013-01-19 20:38:00,46.5,43.1,29.63,East,82,8.1,8.1,88,0.01,CLR,,0.02,0.0,WeatherDisplay:10.37,2013-01-19 19:38:00,
2013-01-19 20:41:00,46.5,43.1,29.63,East,90,8.1,8.1,88,0.01,CLR,,0.02,0.0,WeatherDisplay:10.37,2013-01-19 19:41:00,
2013-01-19 20:43:00,46.6,43.2,29.63,ENE,69,8.1,8.1,88,0.01,CLR,,0.02,0.0,WeatherDisplay:10.37,2013-01-19 19:43:00,
2013-01-19 20:47:00,46.7,43.3,29.63,ENE,78,4.6,4.6,88,0.01,CLR,,0.02,0.0,WeatherDisplay:10.37,2013-01-19 19:47:00,
2013-01-19 20:49:00,46.7,43.3,29.63,ENE,78,5.0,5.0,88,0.01,CLR,,0.02,0.0,WeatherDisplay:10.37,2013-01-19 19:49:00,
2013-01-19 20:52:00,46.7,43.3,29.63,ENE,78,4.0,4.0,88,0.01,CLR,,0.02,0.0,WeatherDisplay:10.37,2013-01-19 19:52:00,
2013-01-19 20:54:00,46.8,43.4,29.63,ENE,69,8.1,8.1,88,0.01,CLR,,0.02,0.0,WeatherDisplay:10.37,2013-01-19 19:54:00,
2013-01-19 20:57:00,46.8,43.4,29.63,East,80,8.1,8.1,88,0.01,CLR,,0.02,0.0,WeatherDisplay:10.37,2013-01-19 19:57:00,
2013-01-19 20:59:00,46.9,43.5,29.63,ENE,78,8.1,8.1,88,0.01,CLR,,0.02,0.0,WeatherDisplay:10.37,2013-01-19 19:59:00,
2013-01-19 21:02:00,46.9,43.5,29.64,ENE,74,8.1,8.1,88,0.01,CLR,,0.02,0.0,WeatherDisplay:10.37,2013-01-19 20:02:00,
2013-01-19 21:05:00,46.9,43.5,29.63,East,80,9.2,9.2,88,0.01,CLR,,0.02,0.0,WeatherDisplay:10.37,2013-01-19 20:05:00,
2013-01-19 21:07:00,47.0,43.6,29.64,ENE,78,9.2,9.2,88,0.01,CLR,,0.02,0.0,WeatherDisplay:10.37,2013-01-19 20:07:00,
2013-01-19 21:10:00,47.1,43.7,29.63,ENE,78,8.1,8.1,88,0.01,CLR,,0.02,0.0,WeatherDisplay:10.37,2013-01-19 20:10:00,
2013-01-19 21:13:00,47.1,43.7,29.63,ENE,71,4.6,4.6,88,0.00,CLR,,0.02,0.0,WeatherDisplay:10.37,2013-01-19 20:13:00,
2013-01-19 21:15:00,47.1,43.7,29.63,ENE,74,4.6,4.6,88,0.00,CLR,,0.02,0.0,WeatherDisplay:10.37,2013-01-19 20:15:00,
2013-01-19 21:18:00,47.1,43.7,29.63,East,82,9.2,9.2,88,0.00,CLR,,0.02,0.0,WeatherDisplay:10.37,2013-01-19 20:18:00,
2013-01-19 21:20:00,47.1,43.7,29.63,East,80,9.2,9.2,88,0.00,CLR,,0.02,0.0,WeatherDisplay:10.37,2013-01-19 20:20:00,
2013-01-19 21:23:00,47.2,43.8,29.63,ENE,78,9.2,9.2,88,0.00,CLR,,0.02,0.0,WeatherDisplay:10.37,2013-01-19 20:23:00,
2013-01-19 21:25:00,47.2,43.8,29.63,ENE,78,9.2,9.2,88,0.00,CLR,,0.02,0.0,WeatherDisplay:10.37,2013-01-19 20:25:00,
2013-01-19 21:28:00,47.2,43.8,29.63,East,82,5.8,5.8,88,0.00,CLR,,0.02,0.0,WeatherDisplay:10.37,2013-01-19 20:28:00,
2013-01-19 21:30:00,47.2,43.8,29.63,East,81,6.0,6.0,88,0.00,CLR,,0.02,0.0,WeatherDisplay:10.37,2013-01-19 20:30:00,
2013-01-19 21:34:00,47.2,43.8,29.63,ENE,66,6.9,6.9,88,0.00,CLR,,0.02,0.0,WeatherDisplay:10.37,2013-01-19 20:34:00,
2013-01-19 21:35:00,47.2,43.8,29.63,ENE,67,4.0,4.0,88,0.00,CLR,,0.02,0.0,WeatherDisplay:10.37,2013-01-19 20:35:00,
2013-01-19 21:39:00,47.3,43.9,29.63,ENE,74,3.5,3.5,88,0.01,RA,,0.03,0.0,WeatherDisplay:10.37,2013-01-19 20:39:00,
2013-01-19 21:40:00,47.3,43.9,29.63,ENE,74,3.5,3.5,88,0.01,RA,,0.03,0.0,WeatherDisplay:10.37,2013-01-19 20:40:00,
2013-01-19 21:44:00,47.3,43.9,29.63,ENE,74,3.5,3.5,88,0.01,RA,,0.03,0.0,WeatherDisplay:10.37,2013-01-19 20:44:00,
2013-01-19 21:46:00,47.3,43.9,29.63,ENE,74,3.5,3.5,88,0.01,RA,,0.03,0.0,WeatherDisplay:10.37,2013-01-19 20:46:00,
2013-01-19 21:49:00,47.2,43.8,29.63,ENE,75,3.5,3.5,88,0.01,,,0.03,0.0,WeatherDisplay:10.37,2013-01-19 20:49:00,
2013-01-19 21:51:00,47.2,43.8,29.63,ENE,75,3.5,3.5,88,0.01,CLR,,0.03,0.0,WeatherDisplay:10.37,2013-01-19 20:51:00,
2013-01-19 21:54:00,47.2,43.8,29.63,ENE,75,3.5,3.5,88,0.01,CLR,,0.03,0.0,WeatherDisplay:10.37,2013-01-19 20:54:00,
2013-01-19 21:57:00,47.2,43.8,29.63,ENE,75,3.5,3.5,88,0.01,CLR,,0.03,0.0,WeatherDisplay:10.37,2013-01-19 20:57:00,
2013-01-19 21:59:00,47.1,43.7,29.63,ENE,75,4.0,4.0,88,0.01,CLR,,0.03,0.0,WeatherDisplay:10.37,2013-01-19 20:59:00,
2013-01-19 22:02:00,47.1,43.7,29.63,ENE,76,4.0,4.0,88,0.01,CLR,,0.03,0.0,WeatherDisplay:10.37,2013-01-19 21:02:00,
2013-01-19 22:04:00,47.1,43.7,29.63,ENE,76,3.5,3.5,88,0.01,CLR,,0.03,0.0,WeatherDisplay:10.37,2013-01-19 21:04:00,
2013-01-19 22:07:00,47.1,43.7,29.64,ENE,76,3.5,3.5,88,0.01,CLR,,0.03,0.0,WeatherDisplay:10.37,2013-01-19 21:07:00,
2013-01-19 22:10:00,47.1,43.7,29.63,ENE,76,3.5,3.5,88,0.01,CLR,,0.03,0.0,WeatherDisplay:10.37,2013-01-19 21:10:00,
2013-01-19 22:12:00,47.1,43.7,29.63,ENE,76,4.6,4.6,88,0.01,CLR,,0.03,0.0,WeatherDisplay:10.37,2013-01-19 21:12:00,
2013-01-19 22:15:00,47.1,43.7,29.63,ENE,76,5.0,5.0,88,0.01,CLR,,0.03,0.0,WeatherDisplay:10.37,2013-01-19 21:15:00,
2013-01-19 22:17:00,47.1,43.7,29.63,ENE,77,8.1,8.1,88,0.01,CLR,,0.03,0.0,WeatherDisplay:10.37,2013-01-19 21:17:00,
2013-01-19 22:21:00,47.2,43.8,29.63,East,79,5.8,5.8,88,0.01,CLR,,0.03,0.0,WeatherDisplay:10.37,2013-01-19 21:21:00,
2013-01-19 22:22:00,47.2,43.8,29.63,East,79,5.8,5.8,88,0.01,CLR,,0.03,0.0,WeatherDisplay:10.37,2013-01-19 21:22:00,
2013-01-19 22:26:00,47.3,43.9,29.63,East,79,5.8,5.8,88,0.01,CLR,,0.03,0.0,WeatherDisplay:10.37,2013-01-19 21:26:00,
2013-01-19 22:28:00,47.3,43.9,29.63,East,79,1.1,0.0,88,0.01,CLR,,0.03,0.0,WeatherDisplay:10.37,2013-01-19 21:28:00,
2013-01-19 22:32:00,47.5,44.1,29.63,East,79,2.0,2.0,88,0.01,CLR,,0.03,0.0,WeatherDisplay:10.37,2013-01-19 21:32:00,
2013-01-19 22:33:00,47.5,44.1,29.63,East,79,2.0,2.0,88,0.01,CLR,,0.03,0.0,WeatherDisplay:10.37,2013-01-19 21:33:00,
2013-01-19 22:37:00,47.5,44.1,29.62,East,79,6.0,6.0,88,0.01,CLR,,0.03,0.0,WeatherDisplay:10.37,2013-01-19 21:37:00,
2013-01-19 22:39:00,47.6,44.2,29.63,ENE,78,4.6,4.6,88,0.00,CLR,,0.03,0.0,WeatherDisplay:10.37,2013-01-19 21:39:00,
2013-01-19 22:42:00,47.7,44.3,29.63,East,79,4.6,4.6,88,0.00,CLR,,0.03,0.0,WeatherDisplay:10.37,2013-01-19 21:42:00,
2013-01-19 22:44:00,47.8,44.4,29.63,East,79,4.6,4.6,88,0.00,CLR,,0.03,0.0,WeatherDisplay:10.37,2013-01-19 21:44:00,
2013-01-19 22:48:00,47.9,44.5,29.63,East,79,1.1,1.1,88,0.00,CLR,,0.03,0.0,WeatherDisplay:10.37,2013-01-19 21:48:00,
2013-01-19 22:49:00,47.9,44.5,29.63,East,79,2.3,2.3,88,0.00,CLR,,0.03,0.0,WeatherDisplay:10.37,2013-01-19 21:49:00,
2013-01-19 22:53:00,48.0,44.6,29.62,East,79,3.5,3.5,88,0.00,CLR,,0.03,0.0,WeatherDisplay:10.37,2013-01-19 21:53:00,
2013-01-19 22:54:00,48.0,44.6,29.62,ENE,78,3.5,3.5,88,0.00,CLR,,0.03,0.0,WeatherDisplay:10.37,2013-01-19 21:54:00,
2013-01-19 22:58:00,48.0,44.6,29.63,ENE,78,4.0,4.0,88,0.00,CLR,,0.03,0.0,WeatherDisplay:10.37,2013-01-19 21:58:00,
2013-01-19 22:59:00,48.0,44.6,29.63,ENE,78,3.5,3.5,88,0.00,CLR,,0.03,0.0,WeatherDisplay:10.37,2013-01-19 21:59:00,
2013-01-19 23:03:00,48.0,44.6,29.62,ENE,78,3.5,3.5,88,0.00,CLR,,0.03,0.0,WeatherDisplay:10.37,2013-01-19 22:03:00,
2013-01-19 23:05:00,48.2,44.8,29.62,East,89,4.6,4.6,88,0.00,CLR,,0.03,0.0,WeatherDisplay:10.37,2013-01-19 22:05:00,
2013-01-19 23:08:00,48.3,44.9,29.62,East,89,3.5,3.5,88,0.00,CLR,,0.03,0.0,WeatherDisplay:10.37,2013-01-19 22:08:00,
2013-01-19 23:10:00,48.4,45.0,29.62,East,89,4.6,4.6,88,0.00,CLR,,0.03,0.0,WeatherDisplay:10.37,2013-01-19 22:10:00,
2013-01-19 23:13:00,48.5,45.1,29.62,East,86,4.6,4.6,88,0.00,CLR,,0.03,0.0,WeatherDisplay:10.37,2013-01-19 22:13:00,
2013-01-19 23:15:00,48.6,45.2,29.62,East,86,4.6,4.6,88,0.00,CLR,,0.03,0.0,WeatherDisplay:10.37,2013-01-19 22:15:00,
2013-01-19 23:18:00,48.8,45.4,29.62,East,86,6.0,6.0,88,0.00,CLR,,0.03,0.0,WeatherDisplay:10.37,2013-01-19 22:18:00,
2013-01-19 23:21:00,48.9,45.5,29.62,East,86,4.6,4.6,88,0.00,CLR,,0.03,0.0,WeatherDisplay:10.37,2013-01-19 22:21:00,
2013-01-19 23:24:00,49.1,45.7,29.62,East,86,3.5,3.5,88,0.00,CLR,,0.03,0.0,WeatherDisplay:10.37,2013-01-19 22:24:00,
2013-01-19 23:27:00,49.1,45.7,29.62,East,86,2.3,2.3,88,0.00,CLR,,0.03,0.0,WeatherDisplay:10.37,2013-01-19 22:27:00,
2013-01-19 23:29:00,49.1,45.7,29.62,East,86,3.5,3.5,88,0.00,CLR,,0.03,0.0,WeatherDisplay:10.37,2013-01-19 22:29:00,
2013-01-19 23:33:00,49.2,45.8,29.62,East,86,2.3,2.3,88,0.00,CLR,,0.03,0.0,WeatherDisplay:10.37,2013-01-19 22:33:00,
2013-01-19 23:34:00,49.3,45.9,29.62,East,86,1.1,1.1,88,0.00,CLR,,0.03,0.0,WeatherDisplay:10.37,2013-01-19 22:34:00,
2013-01-19 23:38:00,49.4,46.0,29.62,East,86,3.5,3.5,88,0.00,CLR,,0.03,0.0,WeatherDisplay:10.37,2013-01-19 22:38:00,
2013-01-19 23:40:00,49.4,46.0,29.62,East,86,2.3,2.3,88,0.00,CLR,,0.03,0.0,WeatherDisplay:10.37,2013-01-19 22:40:00,
2013-01-19 23:44:00,49.5,46.1,29.61,East,86,5.0,5.0,88,0.00,CLR,,0.03,0.0,WeatherDisplay:10.37,2013-01-19 22:44:00,
2013-01-19 23:45:00,49.6,46.2,29.61,East,86,4.6,4.6,88,0.00,CLR,,0.03,0.0,WeatherDisplay:10.37,2013-01-19 22:45:00,
2013-01-19 23:49:00,49.7,46.3,29.61,East,86,0.0,0.0,88,0.00,CLR,,0.03,0.0,WeatherDisplay:10.37,2013-01-19 22:49:00,
2013-01-19 23:51:00,49.7,46.3,29.61,East,86,0.0,0.0,88,0.00,CLR,,0.03,0.0,WeatherDisplay:10.37,2013-01-19 22:51:00,
2013-01-19 23:54:00,49.8,46.4,29.61,East,86,1.1,1.1,88,0.00,CLR,,0.03,0.0,WeatherDisplay:10.37,2013-01-19 22:54:00,
2013-01-19 23:56:00,49.8,46.4,29.61,East,86,2.3,2.3,88,0.00,CLR,,0.03,0.0,WeatherDisplay:10.37,2013-01-19 22:56:00,
2013-01-19 23:59:00,49.9,46.5,29.61,East,86,2.3,2.3,88,0.00,CLR,,0.03,0.0,WeatherDisplay:10.37,2013-01-19 22:59:00,